Time,TemperatureF,DewpointF,PressureIn,WindDirection,WindDirectionDegrees,WindSpeedMPH,WindSpeedGustMPH,Humidity,HourlyPrecipIn,Conditions,Clouds,dailyrainin,SoftwareType,DateUTC
2013-02-05 00:00:00,45.2,38.4,29.85,West,270,0.0,0.0,77,-99.99,,,-99.99,WSDL version 423,2013-02-05 06:00:00,
2013-02-05 00:01:00,45.2,38.4,29.85,West,270,0.0,0.0,77,-99.99,,,-99.99,WSDL version 423,2013-02-05 06:01:00,
2013-02-05 00:02:00,45.3,38.5,29.85,West,270,0.0,0.0,77,-99.99,,,-99.99,WSDL version 423,2013-02-05 06:02:00,
2013-02-05 00:03:00,45.3,38.5,29.85,West,270,0.0,0.0,77,-99.99,,,-99.99,WSDL version 423,2013-02-05 06:03:00,
2013-02-05 00:07:00,45.3,38.5,29.85,SSW,203,0.0,0.0,77,-99.99,,,-99.99,WSDL version 423,2013-02-05 06:07:00,
2013-02-05 00:08:00,45.3,38.5,29.85,SSW,203,0.0,0.0,77,-99.99,,,-99.99,WSDL version 423,2013-02-05 06:08:00,
2013-02-05 00:09:00,45.3,38.5,29.85,SSW,203,0.0,0.0,77,-99.99,,,-99.99,WSDL version 423,2013-02-05 06:09:00,
2013-02-05 00:14:00,45.3,38.5,29.85,WSW,240,0.0,0.0,77,-99.99,,,-99.99,WSDL version 423,2013-02-05 06:14:00,
2013-02-05 00:17:00,45.3,38.5,29.85,WSW,248,0.0,0.0,77,-99.99,,,-99.99,WSDL version 423,2013-02-05 06:17:00,
2013-02-05 00:19:00,45.3,38.5,29.85,WSW,248,0.0,0.0,77,-99.99,,,-99.99,WSDL version 423,2013-02-05 06:19:00,
2013-02-05 00:21:00,45.3,38.5,29.85,WSW,248,0.0,0.0,77,-99.99,,,-99.99,WSDL version 423,2013-02-05 06:21:00,
2013-02-05 00:24:00,45.3,38.5,29.85,WSW,248,0.0,0.0,77,-99.99,,,-99.99,WSDL version 423,2013-02-05 06:24:00,
2013-02-05 00:25:00,45.3,38.5,29.85,WSW,248,0.0,0.0,77,-99.99,,,-99.99,WSDL version 423,2013-02-05 06:25:00,
2013-02-05 00:27:00,45.3,38.5,29.85,WSW,248,0.0,0.0,77,-99.99,,,-99.99,WSDL version 423,2013-02-05 06:27:00,
2013-02-05 00:29:00,45.3,38.4,29.85,WSW,248,0.0,0.0,77,-99.99,,,-99.99,WSDL version 423,2013-02-05 06:29:00,
2013-02-05 00:30:00,45.2,38.4,29.85,WSW,248,0.0,0.0,77,-99.99,,,-99.99,WSDL version 423,2013-02-05 06:30:00,
2013-02-05 00:34:00,45.1,38.4,29.85,WSW,248,0.0,0.0,77,-99.99,,,-99.99,WSDL version 423,2013-02-05 06:34:00,
2013-02-05 00:35:00,45.1,38.4,29.85,WSW,241,0.0,0.0,77,-99.99,,,-99.99,WSDL version 423,2013-02-05 06:35:00,
2013-02-05 00:40:00,45.2,38.4,29.85,West,270,0.0,0.0,77,-99.99,,,-99.99,WSDL version 423,2013-02-05 06:40:00,
2013-02-05 00:41:00,45.2,38.5,29.85,West,270,0.0,0.0,77,-99.99,,,-99.99,WSDL version 423,2013-02-05 06:41:00,
2013-02-05 00:42:00,45.3,38.5,29.85,West,270,0.0,0.0,77,-99.99,,,-99.99,WSDL version 423,2013-02-05 06:42:00,
2013-02-05 00:45:00,45.2,38.5,29.85,West,270,0.0,0.0,77,-99.99,,,-99.99,WSDL version 423,2013-02-05 06:45:00,
2013-02-05 00:46:00,45.2,38.4,29.85,West,270,0.0,0.0,77,-99.99,,,-99.99,WSDL version 423,2013-02-05 06:46:00,
2013-02-05 00:49:00,45.2,38.4,29.85,WSW,238,0.0,0.0,77,-99.99,,,-99.99,WSDL version 423,2013-02-05 06:49:00,
2013-02-05 00:51:00,45.3,38.5,29.85,SW,225,0.0,0.0,77,-99.99,,,-99.99,WSDL version 423,2013-02-05 06:51:00,
2013-02-05 00:52:00,45.3,38.5,29.85,SW,225,0.0,0.0,77,-99.99,,,-99.99,WSDL version 423,2013-02-05 06:52:00,
2013-02-05 00:54:00,45.3,38.5,29.85,SW,223,0.0,0.0,77,-99.99,,,-99.99,WSDL version 423,2013-02-05 06:54:00,
2013-02-05 00:56:00,45.3,38.5,29.85,WSW,242,0.0,0.0,77,-99.99,,,-99.99,WSDL version 423,2013-02-05 06:56:00,
2013-02-05 00:59:00,45.3,38.5,29.85,SW,216,0.0,0.0,77,-99.99,,,-99.99,WSDL version 423,2013-02-05 06:59:00,
2013-02-05 01:00:00,45.3,38.5,29.85,SSW,203,0.0,0.0,77,-99.99,,,-99.99,WSDL version 423,2013-02-05 07:00:00,
2013-02-05 01:01:00,45.3,38.5,29.83,SSW,203,0.0,0.0,77,-99.99,,,-99.99,WSDL version 423,2013-02-05 07:01:00,
2013-02-05 01:04:00,45.3,38.7,29.83,SW,215,0.0,0.0,78,-99.99,,,-99.99,WSDL version 423,2013-02-05 07:04:00,
2013-02-05 01:05:00,45.3,38.8,29.83,SW,225,0.0,0.0,78,-99.99,,,-99.99,WSDL version 423,2013-02-05 07:05:00,
2013-02-05 01:09:00,45.3,38.7,29.83,SW,225,0.0,0.0,78,-99.99,,,-99.99,WSDL version 423,2013-02-05 07:09:00,
2013-02-05 01:10:00,45.3,38.6,29.83,SW,225,0.0,0.0,77,-99.99,,,-99.99,WSDL version 423,2013-02-05 07:10:00,
2013-02-05 01:11:00,45.3,38.6,29.83,SW,225,0.0,0.0,77,-99.99,,,-99.99,WSDL version 423,2013-02-05 07:11:00,
2013-02-05 01:12:00,45.3,38.7,29.83,SW,219,0.0,0.0,78,-99.99,,,-99.99,WSDL version 423,2013-02-05 07:12:00,
2013-02-05 01:16:00,45.3,38.8,29.85,South,180,0.0,0.0,78,-99.99,,,-99.99,WSDL version 423,2013-02-05 07:16:00,
2013-02-05 01:17:00,45.3,38.8,29.85,SSW,197,0.0,0.0,78,-99.99,,,-99.99,WSDL version 423,2013-02-05 07:17:00,
2013-02-05 01:18:00,45.3,38.8,29.85,SW,220,0.0,0.0,78,-99.99,,,-99.99,WSDL version 423,2013-02-05 07:18:00,
2013-02-05 01:23:00,45.3,38.8,29.85,SW,225,0.0,0.0,78,-99.99,,,-99.99,WSDL version 423,2013-02-05 07:23:00,
2013-02-05 01:25:00,45.3,38.8,29.85,SW,228,0.0,0.0,78,-99.99,,,-99.99,WSDL version 423,2013-02-05 07:25:00,
2013-02-05 01:26:00,45.3,38.8,29.85,SW,228,0.0,0.0,78,-99.99,,,-99.99,WSDL version 423,2013-02-05 07:26:00,
2013-02-05 01:28:00,45.3,38.8,29.85,SW,225,0.0,0.0,78,-99.99,,,-99.99,WSDL version 423,2013-02-05 07:28:00,
2013-02-05 01:30:00,45.3,38.8,29.85,SW,225,0.0,0.0,78,-99.99,,,-99.99,WSDL version 423,2013-02-05 07:30:00,
2013-02-05 01:31:00,45.3,38.8,29.85,SW,225,0.0,0.0,78,-99.99,,,-99.99,WSDL version 423,2013-02-05 07:31:00,
2013-02-05 01:33:00,45.3,38.8,29.85,SW,225,0.0,0.0,78,-99.99,,,-99.99,WSDL version 423,2013-02-05 07:33:00,
2013-02-05 01:36:00,45.3,38.8,29.85,SW,225,0.0,0.0,78,-99.99,,,-99.99,WSDL version 423,2013-02-05 07:36:00,
2013-02-05 01:38:00,45.3,38.8,29.85,SW,225,0.0,0.0,78,-99.99,,,-99.99,WSDL version 423,2013-02-05 07:38:00,
2013-02-05 01:40:00,45.3,38.8,29.85,SW,225,0.0,0.0,78,-99.99,,,-99.99,WSDL version 423,2013-02-05 07:40:00,
2013-02-05 01:42:00,45.3,38.8,29.85,SW,225,0.0,0.0,78,-99.99,,,-99.99,WSDL version 423,2013-02-05 07:42:00,
2013-02-05 01:44:00,45.3,38.8,29.85,SW,225,0.0,0.0,78,-99.99,,,-99.99,WSDL version 423,2013-02-05 07:44:00,
2013-02-05 01:45:00,45.3,38.8,29.85,SW,225,0.0,0.0,78,-99.99,,,-99.99,WSDL version 423,2013-02-05 07:45:00,
2013-02-05 01:47:00,45.3,38.8,29.85,SW,225,0.0,0.0,78,-99.99,,,-99.99,WSDL version 423,2013-02-05 07:47:00,
2013-02-05 01:48:00,45.3,38.8,29.85,SW,225,0.0,0.0,78,-99.99,,,-99.99,WSDL version 423,2013-02-05 07:48:00,
2013-02-05 01:50:00,45.3,38.8,29.85,SW,225,0.0,0.0,78,-99.99,,,-99.99,WSDL version 423,2013-02-05 07:50:00,
2013-02-05 01:52:00,45.3,38.8,29.85,SW,225,0.0,0.0,78,-99.99,,,-99.99,WSDL version 423,2013-02-05 07:52:00,
2013-02-05 01:53:00,45.3,38.8,29.85,SW,225,0.0,0.0,78,-99.99,,,-99.99,WSDL version 423,2013-02-05 07:53:00,
2013-02-05 01:54:00,45.3,38.8,29.85,SW,225,0.0,0.0,78,-99.99,,,-99.99,WSDL version 423,2013-02-05 07:54:00,
2013-02-05 01:56:00,45.3,38.8,29.85,SW,225,0.0,0.0,78,-99.99,,,-99.99,WSDL version 423,2013-02-05 07:56:00,
2013-02-05 02:00:00,45.3,38.8,29.85,WSW,242,0.0,0.0,78,-99.99,,,-99.99,WSDL version 423,2013-02-05 08:00:00,
2013-02-05 02:01:00,45.3,38.8,29.85,WSW,248,0.0,0.0,78,-99.99,,,-99.99,WSDL version 423,2013-02-05 08:01:00,
2013-02-05 02:05:00,45.2,38.9,29.85,West,276,0.0,0.0,79,-99.99,,,-99.99,WSDL version 423,2013-02-05 08:05:00,
2013-02-05 02:06:00,45.2,38.9,29.85,WNW,287,0.0,0.0,79,-99.99,,,-99.99,WSDL version 423,2013-02-05 08:06:00,
2013-02-05 02:08:00,45.1,38.8,29.85,WNW,293,0.0,0.0,78,-99.99,,,-99.99,WSDL version 423,2013-02-05 08:08:00,
2013-02-05 02:10:00,45.0,38.6,29.85,WNW,285,0.0,0.0,78,-99.99,,,-99.99,WSDL version 423,2013-02-05 08:10:00,
2013-02-05 02:12:00,44.9,38.5,29.85,WNW,293,0.0,0.0,78,-99.99,,,-99.99,WSDL version 423,2013-02-05 08:12:00,
2013-02-05 02:13:00,44.9,38.4,29.85,WNW,293,0.0,0.0,78,-99.99,,,-99.99,WSDL version 423,2013-02-05 08:13:00,
2013-02-05 02:16:00,44.8,38.3,29.85,WNW,288,0.0,0.0,78,-99.99,,,-99.99,WSDL version 423,2013-02-05 08:16:00,
2013-02-05 02:17:00,44.8,38.3,29.85,WNW,284,0.0,0.0,78,-99.99,,,-99.99,WSDL version 423,2013-02-05 08:17:00,
2013-02-05 02:18:00,44.7,38.2,29.85,WNW,285,0.0,0.0,77,-99.99,,,-99.99,WSDL version 423,2013-02-05 08:18:00,
2013-02-05 02:21:00,44.6,37.9,29.85,WNW,293,0.0,0.0,77,-99.99,,,-99.99,WSDL version 423,2013-02-05 08:21:00,
2013-02-05 02:22:00,44.6,37.8,29.85,WNW,293,0.0,0.0,77,-99.99,,,-99.99,WSDL version 423,2013-02-05 08:22:00,
2013-02-05 02:23:00,44.6,37.8,29.85,WNW,293,0.0,0.0,77,-99.99,,,-99.99,WSDL version 423,2013-02-05 08:23:00,
2013-02-05 02:26:00,44.4,37.7,29.85,WNW,293,0.0,0.0,77,-99.99,,,-99.99,WSDL version 423,2013-02-05 08:26:00,
2013-02-05 02:27:00,44.4,37.6,29.85,WNW,293,0.0,0.0,77,-99.99,,,-99.99,WSDL version 423,2013-02-05 08:27:00,
2013-02-05 02:28:00,44.3,37.6,29.85,WNW,293,0.0,0.0,77,-99.99,,,-99.99,WSDL version 423,2013-02-05 08:28:00,
2013-02-05 02:33:00,44.2,37.4,29.85,WNW,293,0.0,0.0,76,-99.99,,,-99.99,WSDL version 423,2013-02-05 08:33:00,
2013-02-05 02:34:00,44.2,37.3,29.85,WNW,293,0.0,0.0,76,-99.99,,,-99.99,WSDL version 423,2013-02-05 08:34:00,
2013-02-05 02:36:00,44.1,37.1,29.85,WNW,293,0.0,0.0,76,-99.99,,,-99.99,WSDL version 423,2013-02-05 08:36:00,
2013-02-05 02:37:00,44.1,37.0,29.85,WNW,293,0.0,0.0,76,-99.99,,,-99.99,WSDL version 423,2013-02-05 08:37:00,
2013-02-05 02:40:00,44.0,37.0,29.85,WNW,293,0.0,0.0,76,-99.99,,,-99.99,WSDL version 423,2013-02-05 08:40:00,
2013-02-05 02:42:00,44.0,36.9,29.85,WNW,293,0.0,0.0,76,-99.99,,,-99.99,WSDL version 423,2013-02-05 08:42:00,
2013-02-05 02:43:00,43.9,36.9,29.85,WNW,293,0.0,0.0,76,-99.99,,,-99.99,WSDL version 423,2013-02-05 08:43:00,
2013-02-05 02:45:00,43.8,36.8,29.85,WNW,293,0.0,0.0,76,-99.99,,,-99.99,WSDL version 423,2013-02-05 08:45:00,
2013-02-05 02:47:00,43.7,36.7,29.85,WNW,293,0.0,0.0,76,-99.99,,,-99.99,WSDL version 423,2013-02-05 08:47:00,
2013-02-05 02:50:00,43.5,36.5,29.85,WNW,293,0.0,0.0,76,-99.99,,,-99.99,WSDL version 423,2013-02-05 08:50:00,
2013-02-05 02:52:00,43.4,36.4,29.85,WNW,293,0.0,0.0,76,-99.99,,,-99.99,WSDL version 423,2013-02-05 08:52:00,
2013-02-05 02:54:00,43.4,36.4,29.85,WNW,293,0.0,0.0,76,-99.99,,,-99.99,WSDL version 423,2013-02-05 08:54:00,
2013-02-05 02:55:00,43.3,36.3,29.85,WNW,293,0.0,0.0,76,-99.99,,,-99.99,WSDL version 423,2013-02-05 08:55:00,
2013-02-05 02:57:00,43.2,36.3,29.85,WNW,293,0.0,0.0,77,-99.99,,,-99.99,WSDL version 423,2013-02-05 08:57:00,
2013-02-05 02:59:00,43.1,36.3,29.85,WNW,293,0.0,0.0,77,-99.99,,,-99.99,WSDL version 423,2013-02-05 08:59:00,
2013-02-05 03:02:00,43.1,36.5,29.85,West,281,0.0,0.0,78,-99.99,,,-99.99,WSDL version 423,2013-02-05 09:02:00,
2013-02-05 03:06:00,43.0,36.6,29.85,WNW,290,0.0,0.0,78,-99.99,,,-99.99,WSDL version 423,2013-02-05 09:06:00,
2013-02-05 03:08:00,43.0,36.7,29.85,WNW,289,0.0,0.0,79,-99.99,,,-99.99,WSDL version 423,2013-02-05 09:08:00,
2013-02-05 03:11:00,43.0,36.9,29.85,WNW,293,0.0,0.0,79,-99.99,,,-99.99,WSDL version 423,2013-02-05 09:11:00,
2013-02-05 03:12:00,43.0,36.8,29.85,WNW,293,0.0,0.0,78,-99.99,,,-99.99,WSDL version 423,2013-02-05 09:12:00,
2013-02-05 03:13:00,43.0,36.7,29.85,WNW,290,0.0,0.0,78,-99.99,,,-99.99,WSDL version 423,2013-02-05 09:13:00,
2013-02-05 03:17:00,43.0,36.8,29.85,West,278,0.0,0.0,79,-99.99,,,-99.99,WSDL version 423,2013-02-05 09:17:00,
2013-02-05 03:18:00,43.0,36.8,29.85,West,276,0.0,0.0,79,-99.99,,,-99.99,WSDL version 423,2013-02-05 09:18:00,
2013-02-05 03:22:00,43.0,36.9,29.85,WNW,293,0.0,0.0,79,-99.99,,,-99.99,WSDL version 423,2013-02-05 09:22:00,
2013-02-05 03:23:00,42.9,36.8,29.85,WNW,293,0.0,0.0,79,-99.99,,,-99.99,WSDL version 423,2013-02-05 09:23:00,
2013-02-05 03:25:00,42.9,36.8,29.85,WNW,293,0.0,0.0,79,-99.99,,,-99.99,WSDL version 423,2013-02-05 09:25:00,
2013-02-05 03:27:00,42.8,36.7,29.85,WNW,293,0.0,0.0,79,-99.99,,,-99.99,WSDL version 423,2013-02-05 09:27:00,
2013-02-05 03:28:00,42.8,36.7,29.85,WNW,293,0.0,0.0,79,-99.99,,,-99.99,WSDL version 423,2013-02-05 09:28:00,
2013-02-05 03:30:00,42.8,36.7,29.85,WNW,293,0.0,0.0,79,-99.99,,,-99.99,WSDL version 423,2013-02-05 09:30:00,
2013-02-05 03:32:00,42.8,36.7,29.85,WNW,293,0.0,0.0,79,-99.99,,,-99.99,WSDL version 423,2013-02-05 09:32:00,
2013-02-05 03:34:00,42.8,36.7,29.85,WNW,293,0.0,0.0,79,-99.99,,,-99.99,WSDL version 423,2013-02-05 09:34:00,
2013-02-05 03:37:00,42.8,36.7,29.85,WNW,293,0.0,0.0,79,-99.99,,,-99.99,WSDL version 423,2013-02-05 09:37:00,
2013-02-05 03:38:00,42.8,36.7,29.85,WNW,293,0.0,0.0,79,-99.99,,,-99.99,WSDL version 423,2013-02-05 09:38:00,
2013-02-05 03:39:00,42.8,36.7,29.85,WNW,293,0.0,0.0,79,-99.99,,,-99.99,WSDL version 423,2013-02-05 09:39:00,
2013-02-05 03:40:00,42.8,36.7,29.85,WNW,293,0.0,0.0,79,-99.99,,,-99.99,WSDL version 423,2013-02-05 09:40:00,
2013-02-05 03:44:00,42.8,36.7,29.85,WNW,295,0.0,0.0,79,-99.99,,,-99.99,WSDL version 423,2013-02-05 09:44:00,
2013-02-05 03:46:00,42.8,36.7,29.85,WNW,293,0.0,0.0,79,-99.99,,,-99.99,WSDL version 423,2013-02-05 09:46:00,
2013-02-05 03:47:00,42.8,36.7,29.85,WNW,293,0.0,0.0,79,-99.99,,,-99.99,WSDL version 423,2013-02-05 09:47:00,
2013-02-05 03:49:00,42.8,36.7,29.85,WNW,293,0.0,0.0,79,-99.99,,,-99.99,WSDL version 423,2013-02-05 09:49:00,
2013-02-05 03:50:00,42.8,36.7,29.85,WNW,293,0.0,0.0,79,-99.99,,,-99.99,WSDL version 423,2013-02-05 09:50:00,
2013-02-05 03:52:00,42.7,36.6,29.85,WNW,293,0.0,0.0,79,-99.99,,,-99.99,WSDL version 423,2013-02-05 09:52:00,
2013-02-05 03:56:00,42.6,36.5,29.85,WNW,293,0.0,0.0,79,-99.99,,,-99.99,WSDL version 423,2013-02-05 09:56:00,
2013-02-05 03:57:00,42.6,36.5,29.85,WNW,293,0.0,0.0,79,-99.99,,,-99.99,WSDL version 423,2013-02-05 09:57:00,
2013-02-05 03:58:00,42.6,36.5,29.85,WNW,293,0.0,0.0,79,-99.99,,,-99.99,WSDL version 423,2013-02-05 09:58:00,
2013-02-05 04:01:00,42.6,36.5,29.85,WNW,293,0.0,0.0,79,-99.99,,,-99.99,WSDL version 423,2013-02-05 10:01:00,
2013-02-05 04:02:00,42.6,36.5,29.85,WNW,293,0.0,0.0,79,-99.99,,,-99.99,WSDL version 423,2013-02-05 10:02:00,
2013-02-05 04:05:00,42.6,36.5,29.85,WNW,293,0.0,0.0,79,-99.99,,,-99.99,WSDL version 423,2013-02-05 10:05:00,
2013-02-05 04:06:00,42.6,36.5,29.85,WNW,293,0.0,0.0,79,-99.99,,,-99.99,WSDL version 423,2013-02-05 10:06:00,
2013-02-05 04:08:00,42.5,36.4,29.85,WNW,293,0.0,0.0,79,-99.99,,,-99.99,WSDL version 423,2013-02-05 10:08:00,
2013-02-05 04:11:00,42.5,36.2,29.85,WNW,293,0.0,0.0,78,-99.99,,,-99.99,WSDL version 423,2013-02-05 10:11:00,
2013-02-05 04:12:00,42.4,36.1,29.85,WNW,293,0.0,0.0,78,-99.99,,,-99.99,WSDL version 423,2013-02-05 10:12:00,
2013-02-05 04:13:00,42.4,36.0,29.85,WNW,293,0.0,0.0,78,-99.99,,,-99.99,WSDL version 423,2013-02-05 10:13:00,
2013-02-05 04:16:00,42.4,36.2,29.85,WNW,293,0.0,0.0,79,-99.99,,,-99.99,WSDL version 423,2013-02-05 10:16:00,
2013-02-05 04:17:00,42.4,36.3,29.85,WNW,293,0.0,0.0,79,-99.99,,,-99.99,WSDL version 423,2013-02-05 10:17:00,
2013-02-05 04:18:00,42.4,36.3,29.85,WNW,293,0.0,0.0,79,-99.99,,,-99.99,WSDL version 423,2013-02-05 10:18:00,
2013-02-05 04:21:00,42.4,36.3,29.85,WNW,293,0.0,0.0,79,-99.99,,,-99.99,WSDL version 423,2013-02-05 10:21:00,
2013-02-05 04:23:00,42.4,36.3,29.85,WNW,293,0.0,0.0,79,-99.99,,,-99.99,WSDL version 423,2013-02-05 10:23:00,
2013-02-05 04:24:00,42.4,36.3,29.85,WNW,293,0.0,0.0,79,-99.99,,,-99.99,WSDL version 423,2013-02-05 10:24:00,
2013-02-05 04:25:00,42.4,36.3,29.85,WNW,293,0.0,0.0,79,-99.99,,,-99.99,WSDL version 423,2013-02-05 10:25:00,
2013-02-05 04:29:00,42.3,36.2,29.85,WNW,293,0.0,0.0,79,-99.99,,,-99.99,WSDL version 423,2013-02-05 10:29:00,
2013-02-05 04:30:00,42.3,36.2,29.85,WNW,293,0.0,0.0,79,-99.99,,,-99.99,WSDL version 423,2013-02-05 10:30:00,
2013-02-05 04:31:00,42.2,36.2,29.85,WNW,293,0.0,0.0,79,-99.99,,,-99.99,WSDL version 423,2013-02-05 10:31:00,
2013-02-05 04:32:00,42.2,36.2,29.85,WNW,293,0.0,0.0,79,-99.99,,,-99.99,WSDL version 423,2013-02-05 10:32:00,
2013-02-05 04:35:00,42.2,36.2,29.85,WNW,293,0.0,0.0,79,-99.99,,,-99.99,WSDL version 423,2013-02-05 10:35:00,
2013-02-05 04:36:00,42.2,36.2,29.85,WNW,293,0.0,0.0,79,-99.99,,,-99.99,WSDL version 423,2013-02-05 10:36:00,
2013-02-05 04:37:00,42.2,36.2,29.85,WNW,298,0.0,0.0,79,-99.99,,,-99.99,WSDL version 423,2013-02-05 10:37:00,
2013-02-05 04:39:00,42.2,36.1,29.85,WNW,296,0.0,0.0,79,-99.99,,,-99.99,WSDL version 423,2013-02-05 10:39:00,
2013-02-05 04:40:00,42.2,36.1,29.85,NW,309,0.0,0.0,79,-99.99,,,-99.99,WSDL version 423,2013-02-05 10:40:00,
2013-02-05 04:42:00,42.1,36.0,29.85,NW,315,0.0,0.0,79,-99.99,,,-99.99,WSDL version 423,2013-02-05 10:42:00,
2013-02-05 04:43:00,42.1,36.0,29.85,NW,315,0.0,0.0,79,-99.99,,,-99.99,WSDL version 423,2013-02-05 10:43:00,
2013-02-05 04:47:00,42.1,36.0,29.85,NW,315,0.0,0.0,79,-99.99,,,-99.99,WSDL version 423,2013-02-05 10:47:00,
2013-02-05 04:48:00,42.1,36.1,29.85,NW,315,0.0,0.0,79,-99.99,,,-99.99,WSDL version 423,2013-02-05 10:48:00,
2013-02-05 04:49:00,42.2,36.1,29.85,NW,315,0.0,0.0,79,-99.99,,,-99.99,WSDL version 423,2013-02-05 10:49:00,
2013-02-05 04:53:00,42.2,36.2,29.85,NW,315,0.0,0.0,79,-99.99,,,-99.99,WSDL version 423,2013-02-05 10:53:00,
2013-02-05 04:54:00,42.2,36.2,29.85,NW,315,0.0,0.0,79,-99.99,,,-99.99,WSDL version 423,2013-02-05 10:54:00,
2013-02-05 04:56:00,42.2,36.2,29.85,NW,315,0.0,0.0,79,-99.99,,,-99.99,WSDL version 423,2013-02-05 10:56:00,
2013-02-05 04:59:00,42.2,36.2,29.85,NW,315,0.0,0.0,79,-99.99,,,-99.99,WSDL version 423,2013-02-05 10:59:00,
2013-02-05 05:01:00,42.2,36.2,29.85,NW,315,0.0,0.0,79,-99.99,,,-99.99,WSDL version 423,2013-02-05 11:01:00,
2013-02-05 05:02:00,42.2,36.1,29.85,NW,315,0.0,0.0,79,-99.99,,,-99.99,WSDL version 423,2013-02-05 11:02:00,
2013-02-05 05:03:00,42.2,36.1,29.85,NW,315,0.0,0.0,79,-99.99,,,-99.99,WSDL version 423,2013-02-05 11:03:00,
2013-02-05 05:04:00,42.2,36.1,29.85,NW,315,0.0,0.0,79,-99.99,,,-99.99,WSDL version 423,2013-02-05 11:04:00,
2013-02-05 05:07:00,42.1,36.0,29.85,NW,315,0.0,0.0,79,-99.99,,,-99.99,WSDL version 423,2013-02-05 11:07:00,
2013-02-05 05:09:00,42.1,36.0,29.85,NW,315,0.0,0.0,79,-99.99,,,-99.99,WSDL version 423,2013-02-05 11:09:00,
2013-02-05 05:13:00,42.2,36.4,29.85,NW,315,0.0,0.0,80,-99.99,,,-99.99,WSDL version 423,2013-02-05 11:13:00,
2013-02-05 05:14:00,42.2,36.4,29.85,NW,315,0.0,0.0,80,-99.99,,,-99.99,WSDL version 423,2013-02-05 11:14:00,
2013-02-05 05:16:00,42.2,36.4,29.85,NW,315,0.0,0.0,80,-99.99,,,-99.99,WSDL version 423,2013-02-05 11:16:00,
2013-02-05 05:18:00,42.2,36.4,29.85,NW,315,0.0,0.0,80,-99.99,,,-99.99,WSDL version 423,2013-02-05 11:18:00,
2013-02-05 05:21:00,42.2,36.4,29.85,NW,315,0.0,0.0,80,-99.99,,,-99.99,WSDL version 423,2013-02-05 11:21:00,
2013-02-05 05:22:00,42.2,36.4,29.85,NW,315,0.0,0.0,80,-99.99,,,-99.99,WSDL version 423,2013-02-05 11:22:00,
2013-02-05 05:23:00,42.2,36.4,29.85,NW,315,0.0,0.0,80,-99.99,,,-99.99,WSDL version 423,2013-02-05 11:23:00,
2013-02-05 05:26:00,42.2,36.4,29.85,NW,315,0.0,0.0,80,-99.99,,,-99.99,WSDL version 423,2013-02-05 11:26:00,
2013-02-05 05:28:00,42.2,36.3,29.85,NW,315,0.0,0.0,79,-99.99,,,-99.99,WSDL version 423,2013-02-05 11:28:00,
2013-02-05 05:29:00,42.1,36.2,29.85,NW,315,0.0,0.0,79,-99.99,,,-99.99,WSDL version 423,2013-02-05 11:29:00,
2013-02-05 05:30:00,42.0,36.0,29.85,NW,315,0.0,0.0,79,-99.99,,,-99.99,WSDL version 423,2013-02-05 11:30:00,
2013-02-05 05:34:00,41.9,35.8,29.85,NW,315,0.0,0.0,79,-99.99,,,-99.99,WSDL version 423,2013-02-05 11:34:00,
2013-02-05 05:36:00,41.9,35.8,29.85,NW,315,0.0,0.0,79,-99.99,,,-99.99,WSDL version 423,2013-02-05 11:36:00,
2013-02-05 05:38:00,41.9,35.8,29.85,NW,315,0.0,0.0,79,-99.99,,,-99.99,WSDL version 423,2013-02-05 11:38:00,
2013-02-05 05:40:00,41.9,35.8,29.85,NW,315,0.0,0.0,79,-99.99,,,-99.99,WSDL version 423,2013-02-05 11:40:00,
2013-02-05 05:43:00,41.9,35.8,29.85,NW,315,0.0,0.0,79,-99.99,,,-99.99,WSDL version 423,2013-02-05 11:43:00,
2013-02-05 05:48:00,41.9,35.8,29.85,NW,315,0.0,0.0,79,-99.99,,,-99.99,WSDL version 423,2013-02-05 11:48:00,
2013-02-05 05:50:00,41.8,35.8,29.85,NW,315,0.0,0.0,79,-99.99,,,-99.99,WSDL version 423,2013-02-05 11:50:00,
2013-02-05 05:51:00,41.8,35.7,29.85,NW,315,0.0,0.0,79,-99.99,,,-99.99,WSDL version 423,2013-02-05 11:51:00,
2013-02-05 05:55:00,41.8,35.7,29.85,NW,315,0.0,0.0,79,-99.99,,,-99.99,WSDL version 423,2013-02-05 11:55:00,
2013-02-05 05:57:00,41.9,35.9,29.85,NW,315,0.0,0.0,80,-99.99,,,-99.99,WSDL version 423,2013-02-05 11:57:00,
2013-02-05 05:58:00,41.9,35.9,29.85,NW,315,0.0,0.0,80,-99.99,,,-99.99,WSDL version 423,2013-02-05 11:58:00,
2013-02-05 06:03:00,41.8,35.8,29.85,NW,315,0.0,0.0,79,-99.99,,,-99.99,WSDL version 423,2013-02-05 12:03:00,
2013-02-05 06:07:00,41.7,35.7,29.85,NW,315,0.0,0.0,79,-99.99,,,-99.99,WSDL version 423,2013-02-05 12:07:00,
2013-02-05 06:08:00,41.7,35.6,29.85,NW,315,0.0,0.0,79,-99.99,,,-99.99,WSDL version 423,2013-02-05 12:08:00,
2013-02-05 06:11:00,41.6,35.6,29.85,NW,315,0.0,0.0,79,-99.99,,,-99.99,WSDL version 423,2013-02-05 12:11:00,
2013-02-05 06:12:00,41.6,35.5,29.85,NW,315,0.0,0.0,79,-99.99,,,-99.99,WSDL version 423,2013-02-05 12:12:00,
2013-02-05 06:15:00,41.5,35.5,29.85,NW,315,0.0,0.0,79,-99.99,,,-99.99,WSDL version 423,2013-02-05 12:15:00,
2013-02-05 06:16:00,41.5,35.5,29.85,NW,315,0.0,0.0,79,-99.99,,,-99.99,WSDL version 423,2013-02-05 12:16:00,
2013-02-05 06:18:00,41.5,35.5,29.85,NW,315,0.0,0.0,79,-99.99,,,-99.99,WSDL version 423,2013-02-05 12:18:00,
2013-02-05 06:21:00,41.5,35.5,29.85,NW,315,0.0,0.0,79,-99.99,,,-99.99,WSDL version 423,2013-02-05 12:21:00,
2013-02-05 06:22:00,41.5,35.5,29.85,NW,315,0.0,0.0,79,-99.99,,,-99.99,WSDL version 423,2013-02-05 12:22:00,
2013-02-05 06:23:00,41.5,35.5,29.85,NW,315,0.0,0.0,79,-99.99,,,-99.99,WSDL version 423,2013-02-05 12:23:00,
2013-02-05 06:24:00,41.5,35.5,29.85,NW,315,0.0,0.0,79,-99.99,,,-99.99,WSDL version 423,2013-02-05 12:24:00,
2013-02-05 06:29:00,41.5,35.4,29.85,NW,315,0.0,0.0,79,-99.99,,,-99.99,WSDL version 423,2013-02-05 12:29:00,
2013-02-05 06:31:00,41.4,35.4,29.88,NW,315,0.0,0.0,79,-99.99,,,-99.99,WSDL version 423,2013-02-05 12:31:00,
2013-02-05 06:34:00,41.3,35.3,29.88,NW,315,0.0,0.0,79,-99.99,,,-99.99,WSDL version 423,2013-02-05 12:34:00,
2013-02-05 06:37:00,41.3,35.3,29.88,NW,315,0.0,0.0,79,-99.99,,,-99.99,WSDL version 423,2013-02-05 12:37:00,
2013-02-05 06:41:00,41.3,35.3,29.88,NW,315,0.0,0.0,80,-99.99,,,-99.99,WSDL version 423,2013-02-05 12:41:00,
2013-02-05 06:42:00,41.3,35.4,29.88,NW,315,0.0,0.0,80,-99.99,,,-99.99,WSDL version 423,2013-02-05 12:42:00,
2013-02-05 06:47:00,41.3,35.6,29.88,NW,315,0.0,0.0,80,-99.99,,,-99.99,WSDL version 423,2013-02-05 12:47:00,
2013-02-05 06:49:00,41.3,35.4,29.88,NW,315,0.0,0.0,79,-99.99,,,-99.99,WSDL version 423,2013-02-05 12:49:00,
2013-02-05 06:51:00,41.2,35.2,29.88,NW,315,0.0,0.0,79,-99.99,,,-99.99,WSDL version 423,2013-02-05 12:51:00,
2013-02-05 06:55:00,41.2,35.1,29.88,NW,315,0.0,0.0,79,-99.99,,,-99.99,WSDL version 423,2013-02-05 12:55:00,
2013-02-05 06:56:00,41.2,35.1,29.88,NW,315,0.0,0.0,79,-99.99,,,-99.99,WSDL version 423,2013-02-05 12:56:00,
2013-02-05 06:59:00,41.3,35.4,29.88,NW,315,0.0,0.0,80,-99.99,,,-99.99,WSDL version 423,2013-02-05 12:59:00,
2013-02-05 07:01:00,41.3,35.6,29.88,NW,315,0.0,0.0,80,-99.99,,,-99.99,WSDL version 423,2013-02-05 13:01:00,
2013-02-05 07:03:00,41.3,35.6,29.88,NW,315,0.0,0.0,80,-99.99,,,-99.99,WSDL version 423,2013-02-05 13:03:00,
2013-02-05 07:04:00,41.3,35.6,29.88,NW,315,0.0,0.0,80,-99.99,,,-99.99,WSDL version 423,2013-02-05 13:04:00,
2013-02-05 07:08:00,41.5,35.7,29.88,NW,315,0.0,0.0,80,-99.99,,,-99.99,WSDL version 423,2013-02-05 13:08:00,
2013-02-05 07:09:00,41.5,35.7,29.88,NW,315,0.0,0.0,80,-99.99,,,-99.99,WSDL version 423,2013-02-05 13:09:00,
2013-02-05 07:11:00,41.5,35.7,29.88,NW,315,0.0,0.0,80,-99.99,,,-99.99,WSDL version 423,2013-02-05 13:11:00,
2013-02-05 07:13:00,41.5,35.7,29.88,NW,315,0.0,0.0,80,-99.99,,,-99.99,WSDL version 423,2013-02-05 13:13:00,
2013-02-05 07:16:00,41.5,35.7,29.91,NW,315,0.0,0.0,80,-99.99,,,-99.99,WSDL version 423,2013-02-05 13:16:00,
2013-02-05 07:17:00,41.4,35.7,29.91,NW,315,0.0,0.0,80,-99.99,,,-99.99,WSDL version 423,2013-02-05 13:17:00,
2013-02-05 07:19:00,41.4,35.5,29.91,WNW,293,0.0,0.0,79,-99.99,,,-99.99,WSDL version 423,2013-02-05 13:19:00,
2013-02-05 07:21:00,41.3,35.3,29.91,WNW,287,0.0,0.0,79,-99.99,,,-99.99,WSDL version 423,2013-02-05 13:21:00,
2013-02-05 07:23:00,41.2,35.1,29.91,WNW,293,0.0,0.0,79,-99.99,,,-99.99,WSDL version 423,2013-02-05 13:23:00,
2013-02-05 07:26:00,41.2,35.2,29.91,WNW,293,0.0,0.0,79,-99.99,,,-99.99,WSDL version 423,2013-02-05 13:26:00,
2013-02-05 07:27:00,41.3,35.2,29.91,WNW,293,0.0,0.0,79,-99.99,,,-99.99,WSDL version 423,2013-02-05 13:27:00,
2013-02-05 07:29:00,41.3,35.4,29.91,WNW,293,0.0,0.0,80,-99.99,,,-99.99,WSDL version 423,2013-02-05 13:29:00,
2013-02-05 07:32:00,41.3,35.6,29.91,WNW,293,0.0,0.0,80,-99.99,,,-99.99,WSDL version 423,2013-02-05 13:32:00,
2013-02-05 07:33:00,41.3,35.6,29.91,WNW,293,0.0,0.0,80,-99.99,,,-99.99,WSDL version 423,2013-02-05 13:33:00,
2013-02-05 07:34:00,41.3,35.6,29.91,WNW,293,0.0,0.0,80,-99.99,,,-99.99,WSDL version 423,2013-02-05 13:34:00,
2013-02-05 07:39:00,41.3,35.4,29.91,WNW,293,0.0,0.0,79,-99.99,,,-99.99,WSDL version 423,2013-02-05 13:39:00,
2013-02-05 07:40:00,41.3,35.3,29.91,WNW,293,0.0,0.0,79,-99.99,,,-99.99,WSDL version 423,2013-02-05 13:40:00,
2013-02-05 07:43:00,41.3,35.2,29.91,WNW,293,0.0,0.0,79,-99.99,,,-99.99,WSDL version 423,2013-02-05 13:43:00,
2013-02-05 07:44:00,41.3,35.2,29.91,WNW,293,0.0,0.0,79,-99.99,,,-99.99,WSDL version 423,2013-02-05 13:44:00,
2013-02-05 07:46:00,41.3,35.3,29.91,WNW,293,0.0,0.0,80,-99.99,,,-99.99,WSDL version 423,2013-02-05 13:46:00,
2013-02-05 07:48:00,41.3,35.4,29.91,WNW,286,0.0,0.0,79,-99.99,,,-99.99,WSDL version 423,2013-02-05 13:48:00,
2013-02-05 07:49:00,41.3,35.3,29.91,WNW,293,0.0,0.0,79,-99.99,,,-99.99,WSDL version 423,2013-02-05 13:49:00,
2013-02-05 07:51:00,41.2,35.1,29.91,WNW,293,0.0,0.0,79,-99.99,,,-99.99,WSDL version 423,2013-02-05 13:51:00,
2013-02-05 07:53:00,41.2,35.1,29.91,WNW,293,0.0,0.0,79,-99.99,,,-99.99,WSDL version 423,2013-02-05 13:53:00,
2013-02-05 07:54:00,41.2,35.1,29.91,WNW,293,0.0,0.0,79,-99.99,,,-99.99,WSDL version 423,2013-02-05 13:54:00,
2013-02-05 07:59:00,41.2,35.1,29.91,WNW,293,0.0,0.0,79,-99.99,,,-99.99,WSDL version 423,2013-02-05 13:59:00,
2013-02-05 08:03:00,41.3,35.4,29.91,WNW,293,0.0,0.0,80,-99.99,,,-99.99,WSDL version 423,2013-02-05 14:03:00,
2013-02-05 08:04:00,41.3,35.5,29.91,WNW,293,0.0,0.0,80,-99.99,,,-99.99,WSDL version 423,2013-02-05 14:04:00,
2013-02-05 08:08:00,41.3,35.4,29.91,WNW,293,0.0,0.0,79,-99.99,,,-99.99,WSDL version 423,2013-02-05 14:08:00,
2013-02-05 08:09:00,41.3,35.3,29.91,WNW,293,0.0,0.0,78,-99.99,,,-99.99,WSDL version 423,2013-02-05 14:09:00,
2013-02-05 08:14:00,41.3,35.2,29.91,WNW,293,0.0,0.0,79,-99.99,,,-99.99,WSDL version 423,2013-02-05 14:14:00,
2013-02-05 08:15:00,41.3,35.3,29.91,WNW,293,0.0,0.0,79,-99.99,,,-99.99,WSDL version 423,2013-02-05 14:15:00,
2013-02-05 08:16:00,41.3,35.3,29.91,WNW,293,0.0,0.0,79,-99.99,,,-99.99,WSDL version 423,2013-02-05 14:16:00,
2013-02-05 08:17:00,41.3,35.2,29.91,WNW,293,0.0,0.0,78,-99.99,,,-99.99,WSDL version 423,2013-02-05 14:17:00,
2013-02-05 08:20:00,41.3,34.9,29.91,NE,45,0.0,0.0,78,-99.99,,,-99.99,WSDL version 423,2013-02-05 14:20:00,
2013-02-05 08:22:00,41.2,34.8,29.91,NE,45,0.0,0.0,78,-99.99,,,-99.99,WSDL version 423,2013-02-05 14:22:00,
2013-02-05 08:23:00,41.2,34.8,29.91,NE,45,0.0,0.0,78,-99.99,,,-99.99,WSDL version 423,2013-02-05 14:23:00,
2013-02-05 08:25:00,41.2,34.9,29.91,South,180,0.0,0.0,78,-99.99,,,-99.99,WSDL version 423,2013-02-05 14:25:00,
2013-02-05 08:27:00,41.3,34.9,29.91,SSE,163,0.0,0.0,78,-99.99,,,-99.99,WSDL version 423,2013-02-05 14:27:00,
2013-02-05 08:32:00,41.4,35.0,29.91,SE,135,0.0,0.0,78,-99.99,,,-99.99,WSDL version 423,2013-02-05 14:32:00,
2013-02-05 08:33:00,41.4,35.0,29.91,SE,135,0.0,0.0,78,-99.99,,,-99.99,WSDL version 423,2013-02-05 14:33:00,
2013-02-05 08:37:00,41.5,35.2,29.91,NE,56,0.0,0.0,78,-99.99,,,-99.99,WSDL version 423,2013-02-05 14:37:00,
2013-02-05 08:39:00,41.5,35.2,29.91,NE,45,0.0,0.0,78,-99.99,,,-99.99,WSDL version 423,2013-02-05 14:39:00,
2013-02-05 08:41:00,41.5,35.2,29.91,NE,45,0.0,0.0,78,-99.99,,,-99.99,WSDL version 423,2013-02-05 14:41:00,
2013-02-05 08:42:00,41.5,35.2,29.91,NE,45,0.0,0.0,78,-99.99,,,-99.99,WSDL version 423,2013-02-05 14:42:00,
2013-02-05 08:46:00,41.7,35.3,29.91,NE,45,0.0,0.0,78,-99.99,,,-99.99,WSDL version 423,2013-02-05 14:46:00,
2013-02-05 08:47:00,41.8,35.4,29.91,NE,45,0.0,0.0,78,-99.99,,,-99.99,WSDL version 423,2013-02-05 14:47:00,
2013-02-05 08:50:00,41.9,35.5,29.91,NE,45,0.0,0.0,78,-99.99,,,-99.99,WSDL version 423,2013-02-05 14:50:00,
2013-02-05 08:52:00,41.9,35.5,29.91,NE,42,0.0,0.0,78,-99.99,,,-99.99,WSDL version 423,2013-02-05 14:52:00,
2013-02-05 08:53:00,41.9,35.5,29.91,NNE,31,0.0,0.0,78,-99.99,,,-99.99,WSDL version 423,2013-02-05 14:53:00,
2013-02-05 08:57:00,42.1,35.7,29.91,NNE,23,0.0,0.0,78,-99.99,,,-99.99,WSDL version 423,2013-02-05 14:57:00,
2013-02-05 08:58:00,42.1,35.7,29.91,NNE,28,0.0,0.0,78,-99.99,,,-99.99,WSDL version 423,2013-02-05 14:58:00,
2013-02-05 08:59:00,42.2,35.8,29.91,ENE,70,0.0,0.0,78,-99.99,,,-99.99,WSDL version 423,2013-02-05 14:59:00,
2013-02-05 09:02:00,42.3,36.0,29.91,ESE,113,0.0,0.0,78,-99.99,,,-99.99,WSDL version 423,2013-02-05 15:02:00,
2013-02-05 09:07:00,42.6,36.2,29.91,South,180,0.0,0.0,78,-99.99,,,-99.99,WSDL version 423,2013-02-05 15:07:00,
2013-02-05 09:08:00,42.7,36.3,29.91,South,180,0.0,0.0,78,-99.99,,,-99.99,WSDL version 423,2013-02-05 15:08:00,
2013-02-05 09:09:00,42.8,36.4,29.91,South,176,0.0,0.0,78,-99.99,,,-99.99,WSDL version 423,2013-02-05 15:09:00,
2013-02-05 09:12:00,42.9,36.5,29.91,SE,145,0.0,0.0,77,-99.99,,,-99.99,WSDL version 423,2013-02-05 15:12:00,
2013-02-05 09:13:00,42.9,36.4,29.91,SE,135,0.0,0.0,77,-99.99,,,-99.99,WSDL version 423,2013-02-05 15:13:00,
2013-02-05 09:16:00,42.9,36.2,29.91,NNE,23,0.0,0.0,77,-99.99,,,-99.99,WSDL version 423,2013-02-05 15:16:00,
2013-02-05 09:18:00,43.1,36.4,29.91,NNE,23,0.0,0.0,78,-99.99,,,-99.99,WSDL version 423,2013-02-05 15:18:00,
2013-02-05 09:21:00,43.3,36.7,29.91,NNW,338,0.0,0.0,77,-99.99,,,-99.99,WSDL version 423,2013-02-05 15:21:00,
2013-02-05 09:22:00,43.4,36.9,29.91,NNW,338,0.0,0.0,77,-99.99,,,-99.99,WSDL version 423,2013-02-05 15:22:00,
2013-02-05 09:24:00,43.5,36.8,29.91,NNW,338,0.0,0.0,77,-99.99,,,-99.99,WSDL version 423,2013-02-05 15:24:00,
2013-02-05 09:26:00,43.6,36.9,29.91,NNW,338,0.0,0.0,77,-99.99,,,-99.99,WSDL version 423,2013-02-05 15:26:00,
2013-02-05 09:29:00,43.8,37.1,29.91,NNW,338,0.0,0.0,77,-99.99,,,-99.99,WSDL version 423,2013-02-05 15:29:00,
2013-02-05 09:30:00,43.9,37.2,29.91,NNW,338,0.0,0.0,77,-99.99,,,-99.99,WSDL version 423,2013-02-05 15:30:00,
2013-02-05 09:31:00,44.0,37.1,29.94,NNW,338,0.0,0.0,76,-99.99,,,-99.99,WSDL version 423,2013-02-05 15:31:00,
2013-02-05 09:33:00,44.0,37.1,29.94,NNW,338,0.0,0.0,76,-99.99,,,-99.99,WSDL version 423,2013-02-05 15:33:00,
2013-02-05 09:34:00,44.1,37.1,29.94,NNW,338,0.0,0.0,76,-99.99,,,-99.99,WSDL version 423,2013-02-05 15:34:00,
2013-02-05 09:37:00,44.2,37.1,29.94,NW,318,0.0,0.0,76,-99.99,,,-99.99,WSDL version 423,2013-02-05 15:37:00,
2013-02-05 09:38:00,44.3,37.2,29.94,NW,315,0.0,0.0,75,-99.99,,,-99.99,WSDL version 423,2013-02-05 15:38:00,
2013-02-05 09:42:00,44.6,37.1,29.94,SW,228,0.0,0.0,74,-99.99,,,-99.99,WSDL version 423,2013-02-05 15:42:00,
2013-02-05 09:46:00,44.8,37.0,29.94,East,93,0.0,0.0,73,-99.99,,,-99.99,WSDL version 423,2013-02-05 15:46:00,
2013-02-05 09:48:00,44.8,36.9,29.94,ESE,104,0.0,0.0,73,-99.99,,,-99.99,WSDL version 423,2013-02-05 15:48:00,
2013-02-05 09:50:00,44.8,36.8,29.94,SE,128,0.0,0.0,72,-99.99,,,-99.99,WSDL version 423,2013-02-05 15:50:00,
2013-02-05 09:53:00,44.9,36.7,29.94,SE,141,0.0,0.0,72,-99.99,,,-99.99,WSDL version 423,2013-02-05 15:53:00,
2013-02-05 09:57:00,45.1,36.6,29.94,ESE,113,0.0,0.0,72,-99.99,,,-99.99,WSDL version 423,2013-02-05 15:57:00,
2013-02-05 09:59:00,45.2,36.6,29.94,SSE,152,0.0,0.0,72,-99.99,,,-99.99,WSDL version 423,2013-02-05 15:59:00,
2013-02-05 10:01:00,45.2,36.6,29.94,SE,135,0.0,0.0,72,-99.99,,,-99.99,WSDL version 423,2013-02-05 16:01:00,
2013-02-05 10:03:00,45.2,36.5,29.94,ENE,68,0.0,0.0,72,-99.99,,,-99.99,WSDL version 423,2013-02-05 16:03:00,
2013-02-05 10:04:00,45.1,36.4,29.94,ENE,68,0.0,0.0,71,-99.99,,,-99.99,WSDL version 423,2013-02-05 16:04:00,
2013-02-05 10:06:00,45.1,36.3,29.94,ESE,119,0.0,0.0,72,-99.99,,,-99.99,WSDL version 423,2013-02-05 16:06:00,
2013-02-05 10:09:00,45.1,36.4,29.94,ESE,109,0.0,0.0,72,-99.99,,,-99.99,WSDL version 423,2013-02-05 16:09:00,
2013-02-05 10:10:00,45.1,36.5,29.94,SSE,151,0.0,0.0,72,-99.99,,,-99.99,WSDL version 423,2013-02-05 16:10:00,
2013-02-05 10:15:00,45.6,36.9,29.94,South,174,0.0,0.0,72,-99.99,,,-99.99,WSDL version 423,2013-02-05 16:15:00,
2013-02-05 10:16:00,45.7,37.0,29.94,SSE,160,0.0,0.0,72,-99.99,,,-99.99,WSDL version 423,2013-02-05 16:16:00,
2013-02-05 10:19:00,45.9,37.0,29.94,ESE,104,0.0,0.0,71,-99.99,,,-99.99,WSDL version 423,2013-02-05 16:19:00,
2013-02-05 10:23:00,46.3,37.3,29.94,ESE,118,0.0,0.0,71,-99.99,,,-99.99,WSDL version 423,2013-02-05 16:23:00,
2013-02-05 10:26:00,46.8,37.7,29.94,ESE,109,0.0,0.0,70,-99.99,,,-99.99,WSDL version 423,2013-02-05 16:26:00,
2013-02-05 10:31:00,46.8,37.2,29.94,ESE,113,0.0,0.0,68,-99.99,,,-99.99,WSDL version 423,2013-02-05 16:31:00,
2013-02-05 10:33:00,47.0,37.1,29.94,ESE,121,0.0,0.0,68,-99.99,,,-99.99,WSDL version 423,2013-02-05 16:33:00,
2013-02-05 10:36:00,47.4,37.4,29.94,SSE,165,0.0,0.0,67,-99.99,,,-99.99,WSDL version 423,2013-02-05 16:36:00,
2013-02-05 10:40:00,47.5,36.9,29.94,SE,146,0.0,0.0,66,-99.99,,,-99.99,WSDL version 423,2013-02-05 16:40:00,
2013-02-05 10:41:00,47.6,36.9,29.94,SE,138,0.0,0.0,66,-99.99,,,-99.99,WSDL version 423,2013-02-05 16:41:00,
2013-02-05 10:45:00,47.5,36.7,29.94,East,90,0.0,0.0,65,-99.99,,,-99.99,WSDL version 423,2013-02-05 16:45:00,
2013-02-05 10:47:00,47.2,36.5,29.94,SE,146,0.0,0.0,67,-99.99,,,-99.99,WSDL version 423,2013-02-05 16:47:00,
2013-02-05 10:50:00,47.3,36.9,29.94,SE,130,0.0,0.0,67,-99.99,,,-99.99,WSDL version 423,2013-02-05 16:50:00,
2013-02-05 10:52:00,47.5,37.0,29.94,SE,140,0.0,0.0,66,-99.99,,,-99.99,WSDL version 423,2013-02-05 16:52:00,
2013-02-05 10:53:00,47.7,37.1,29.94,SE,143,0.0,0.0,66,-99.99,,,-99.99,WSDL version 423,2013-02-05 16:53:00,
2013-02-05 10:56:00,48.0,37.3,29.94,SSE,148,0.0,0.0,66,-99.99,,,-99.99,WSDL version 423,2013-02-05 16:56:00,
2013-02-05 10:58:00,48.1,37.3,29.94,SE,143,0.0,0.0,65,-99.99,,,-99.99,WSDL version 423,2013-02-05 16:58:00,
2013-02-05 11:01:00,48.0,36.9,29.94,ENE,74,0.0,0.0,65,-99.99,,,-99.99,WSDL version 423,2013-02-05 17:01:00,
2013-02-05 11:04:00,47.9,37.0,29.94,ESE,113,0.0,0.0,66,-99.99,,,-99.99,WSDL version 423,2013-02-05 17:04:00,
2013-02-05 11:06:00,47.9,37.0,29.94,SSE,152,0.0,0.0,65,-99.99,,,-99.99,WSDL version 423,2013-02-05 17:06:00,
2013-02-05 11:09:00,47.7,36.5,29.94,SSE,161,0.0,0.0,64,-99.99,,,-99.99,WSDL version 423,2013-02-05 17:09:00,
2013-02-05 11:14:00,48.0,36.7,29.94,SE,138,0.0,0.0,65,-99.99,,,-99.99,WSDL version 423,2013-02-05 17:14:00,
2013-02-05 11:17:00,48.1,36.9,29.94,SE,125,0.0,0.0,65,-99.99,,,-99.99,WSDL version 423,2013-02-05 17:17:00,
2013-02-05 11:22:00,48.2,37.1,29.94,SSE,166,0.0,0.0,66,-99.99,,,-99.99,WSDL version 423,2013-02-05 17:22:00,
2013-02-05 11:24:00,48.4,37.4,29.94,SSE,148,0.0,0.0,65,-99.99,,,-99.99,WSDL version 423,2013-02-05 17:24:00,
2013-02-05 11:25:00,48.5,37.5,29.94,SSE,150,0.0,0.0,66,-99.99,,,-99.99,WSDL version 423,2013-02-05 17:25:00,
2013-02-05 11:29:00,48.5,37.4,29.94,ESE,113,0.0,0.0,65,-99.99,,,-99.99,WSDL version 423,2013-02-05 17:29:00,
2013-02-05 11:30:00,48.5,37.3,29.94,ESE,116,0.0,0.0,65,-99.99,,,-99.99,WSDL version 423,2013-02-05 17:30:00,
2013-02-05 11:31:00,48.5,37.3,29.91,ESE,115,0.0,0.0,65,-99.99,,,-99.99,WSDL version 423,2013-02-05 17:31:00,
2013-02-05 11:35:00,48.7,37.5,29.91,South,180,0.0,0.0,65,-99.99,,,-99.99,WSDL version 423,2013-02-05 17:35:00,
2013-02-05 11:36:00,48.7,37.6,29.91,SSE,163,0.0,0.0,65,-99.99,,,-99.99,WSDL version 423,2013-02-05 17:36:00,
2013-02-05 11:38:00,48.8,37.6,29.91,South,173,0.0,0.0,65,-99.99,,,-99.99,WSDL version 423,2013-02-05 17:38:00,
2013-02-05 11:41:00,49.4,38.2,29.91,SE,135,0.0,0.0,65,-99.99,,,-99.99,WSDL version 423,2013-02-05 17:41:00,
2013-02-05 11:42:00,49.6,38.4,29.91,SSW,208,0.0,0.0,65,-99.99,,,-99.99,WSDL version 423,2013-02-05 17:42:00,
2013-02-05 11:43:00,49.7,38.4,29.91,SE,124,0.0,0.0,64,-99.99,,,-99.99,WSDL version 423,2013-02-05 17:43:00,
2013-02-05 11:48:00,51.1,39.2,29.91,SE,130,0.0,0.0,62,-99.99,,,-99.99,WSDL version 423,2013-02-05 17:48:00,
2013-02-05 11:49:00,51.4,39.2,29.91,SE,138,0.0,0.0,62,-99.99,,,-99.99,WSDL version 423,2013-02-05 17:49:00,
2013-02-05 11:50:00,51.5,39.1,29.91,SE,135,0.0,0.0,61,-99.99,,,-99.99,WSDL version 423,2013-02-05 17:50:00,
2013-02-05 11:54:00,51.9,38.6,29.91,East,96,0.0,0.0,60,-99.99,,,-99.99,WSDL version 423,2013-02-05 17:54:00,
2013-02-05 11:55:00,51.9,38.6,29.91,ESE,118,0.0,0.0,60,-99.99,,,-99.99,WSDL version 423,2013-02-05 17:55:00,
2013-02-05 11:56:00,52.0,38.4,29.91,East,96,0.0,0.0,59,-99.99,,,-99.99,WSDL version 423,2013-02-05 17:56:00,
2013-02-05 12:01:00,52.2,38.2,29.91,SSE,158,0.0,0.0,59,-99.99,,,-99.99,WSDL version 423,2013-02-05 18:01:00,
2013-02-05 12:02:00,52.4,38.4,29.91,South,188,0.0,0.0,59,-99.99,,,-99.99,WSDL version 423,2013-02-05 18:02:00,
2013-02-05 12:03:00,52.5,38.4,29.91,South,186,0.0,0.0,58,-99.99,,,-99.99,WSDL version 423,2013-02-05 18:03:00,
2013-02-05 12:07:00,52.7,37.8,29.91,ESE,115,0.0,0.0,56,-99.99,,,-99.99,WSDL version 423,2013-02-05 18:07:00,
2013-02-05 12:08:00,52.7,37.6,29.91,SE,132,0.0,0.0,56,-99.99,,,-99.99,WSDL version 423,2013-02-05 18:08:00,
2013-02-05 12:09:00,52.6,37.5,29.91,ESE,118,0.0,0.0,56,-99.99,,,-99.99,WSDL version 423,2013-02-05 18:09:00,
2013-02-05 12:13:00,53.1,38.1,29.91,SE,135,0.0,0.0,57,-99.99,,,-99.99,WSDL version 423,2013-02-05 18:13:00,
2013-02-05 12:17:00,54.1,38.9,29.88,South,177,0.0,0.0,56,-99.99,,,-99.99,WSDL version 423,2013-02-05 18:17:00,
2013-02-05 12:19:00,54.8,39.6,29.88,South,177,0.0,0.0,56,-99.99,,,-99.99,WSDL version 423,2013-02-05 18:19:00,
2013-02-05 12:22:00,55.2,39.4,29.88,SSW,206,0.0,0.0,52,-99.99,,,-99.99,WSDL version 423,2013-02-05 18:22:00,
2013-02-05 12:23:00,55.4,39.3,29.88,South,169,0.0,0.0,53,-99.99,,,-99.99,WSDL version 423,2013-02-05 18:23:00,
2013-02-05 12:24:00,55.4,39.0,29.88,SE,141,0.0,0.0,54,-99.99,,,-99.99,WSDL version 423,2013-02-05 18:24:00,
2013-02-05 12:29:00,56.2,39.2,29.88,South,169,0.0,0.0,52,-99.99,,,-99.99,WSDL version 423,2013-02-05 18:29:00,
2013-02-05 12:30:00,56.3,39.2,29.88,South,183,0.0,0.0,52,-99.99,,,-99.99,WSDL version 423,2013-02-05 18:30:00,
2013-02-05 12:32:00,56.4,38.9,29.88,SSW,197,0.0,0.0,52,-99.99,,,-99.99,WSDL version 423,2013-02-05 18:32:00,
2013-02-05 12:35:00,56.6,38.8,29.88,SSE,155,0.0,0.0,52,-99.99,,,-99.99,WSDL version 423,2013-02-05 18:35:00,
2013-02-05 12:37:00,56.7,38.7,29.88,SE,125,0.0,0.0,51,-99.99,,,-99.99,WSDL version 423,2013-02-05 18:37:00,
2013-02-05 12:40:00,57.0,38.7,29.88,South,183,0.0,0.0,51,-99.99,,,-99.99,WSDL version 423,2013-02-05 18:40:00,
2013-02-05 12:43:00,57.4,39.2,29.88,SSW,203,0.0,0.0,50,-99.99,,,-99.99,WSDL version 423,2013-02-05 18:43:00,
2013-02-05 12:44:00,57.5,39.3,29.88,South,191,0.0,0.0,51,-99.99,,,-99.99,WSDL version 423,2013-02-05 18:44:00,
2013-02-05 12:45:00,57.5,39.3,29.88,South,176,0.0,0.0,50,-99.99,,,-99.99,WSDL version 423,2013-02-05 18:45:00,
2013-02-05 12:48:00,57.8,39.2,29.88,SSW,203,0.0,0.0,50,-99.99,,,-99.99,WSDL version 423,2013-02-05 18:48:00,
2013-02-05 12:49:00,58.1,39.5,29.88,SSW,210,0.0,0.0,51,-99.99,,,-99.99,WSDL version 423,2013-02-05 18:49:00,
2013-02-05 12:50:00,58.3,39.7,29.88,South,183,0.0,0.0,50,-99.99,,,-99.99,WSDL version 423,2013-02-05 18:50:00,
2013-02-05 12:54:00,58.8,39.3,29.88,SE,135,0.0,0.0,47,-99.99,,,-99.99,WSDL version 423,2013-02-05 18:54:00,
2013-02-05 12:56:00,58.6,38.4,29.88,SE,146,0.0,0.0,46,-99.99,,,-99.99,WSDL version 423,2013-02-05 18:56:00,
2013-02-05 12:59:00,58.1,37.7,29.88,ESE,105,0.0,0.0,47,-99.99,,,-99.99,WSDL version 423,2013-02-05 18:59:00,
2013-02-05 13:04:00,58.6,38.5,29.88,WSW,248,0.0,0.0,47,-99.99,,,-99.99,WSDL version 423,2013-02-05 19:04:00,
2013-02-05 13:05:00,58.7,38.5,29.88,NNW,340,0.0,0.0,46,-99.99,,,-99.99,WSDL version 423,2013-02-05 19:05:00,
2013-02-05 13:09:00,58.7,37.4,29.88,SSE,148,0.0,0.0,45,-99.99,,,-99.99,WSDL version 423,2013-02-05 19:09:00,
2013-02-05 13:11:00,58.7,37.2,29.88,SE,146,0.0,0.0,45,-99.99,,,-99.99,WSDL version 423,2013-02-05 19:11:00,
2013-02-05 13:14:00,59.0,37.7,29.88,SSE,152,0.0,0.0,44,-99.99,,,-99.99,WSDL version 423,2013-02-05 19:14:00,
2013-02-05 13:19:00,59.0,37.2,29.85,ESE,113,0.0,0.0,44,-99.99,,,-99.99,WSDL version 423,2013-02-05 19:19:00,
2013-02-05 13:20:00,59.1,37.4,29.85,East,90,0.0,0.0,44,-99.99,,,-99.99,WSDL version 423,2013-02-05 19:20:00,
2013-02-05 13:25:00,58.8,36.5,29.85,SSE,164,0.0,0.0,43,-99.99,,,-99.99,WSDL version 423,2013-02-05 19:25:00,
2013-02-05 13:26:00,58.8,36.5,29.85,South,185,0.0,0.0,43,-99.99,,,-99.99,WSDL version 423,2013-02-05 19:26:00,
2013-02-05 13:28:00,58.8,36.6,29.85,SSE,164,0.0,0.0,43,-99.99,,,-99.99,WSDL version 423,2013-02-05 19:28:00,
2013-02-05 13:31:00,58.9,36.5,29.85,SSE,155,0.0,0.0,42,-99.99,,,-99.99,WSDL version 423,2013-02-05 19:31:00,
2013-02-05 13:33:00,58.9,36.2,29.85,ESE,107,0.0,0.0,42,-99.99,,,-99.99,WSDL version 423,2013-02-05 19:33:00,
2013-02-05 13:34:00,58.9,36.2,29.85,ESE,110,0.0,0.0,43,-99.99,,,-99.99,WSDL version 423,2013-02-05 19:34:00,
2013-02-05 13:36:00,58.8,36.1,29.85,ESE,121,0.0,0.0,42,-99.99,,,-99.99,WSDL version 423,2013-02-05 19:36:00,
2013-02-05 13:39:00,58.8,36.0,29.85,SSW,211,0.0,0.0,42,-99.99,,,-99.99,WSDL version 423,2013-02-05 19:39:00,
2013-02-05 13:41:00,58.9,36.2,29.85,South,180,0.0,0.0,42,-99.99,,,-99.99,WSDL version 423,2013-02-05 19:41:00,
2013-02-05 13:46:00,59.5,36.5,29.85,SSE,155,0.0,0.0,41,-99.99,,,-99.99,WSDL version 423,2013-02-05 19:46:00,
2013-02-05 13:47:00,59.6,36.5,29.85,SSE,155,0.0,0.0,41,-99.99,,,-99.99,WSDL version 423,2013-02-05 19:47:00,
2013-02-05 13:48:00,59.5,36.3,29.85,SE,135,0.0,0.0,41,-99.99,,,-99.99,WSDL version 423,2013-02-05 19:48:00,
2013-02-05 13:52:00,59.8,36.4,29.85,ESE,118,0.0,0.0,41,-99.99,,,-99.99,WSDL version 423,2013-02-05 19:52:00,
2013-02-05 13:54:00,60.0,36.5,29.85,South,180,0.0,0.0,41,-99.99,,,-99.99,WSDL version 423,2013-02-05 19:54:00,
2013-02-05 13:55:00,60.2,36.5,29.85,SSE,163,0.0,0.0,41,-99.99,,,-99.99,WSDL version 423,2013-02-05 19:55:00,
2013-02-05 13:57:00,60.2,36.2,29.85,SSW,205,0.0,0.0,41,-99.99,,,-99.99,WSDL version 423,2013-02-05 19:57:00,
2013-02-05 13:59:00,60.2,36.2,29.85,South,183,0.0,0.0,41,-99.99,,,-99.99,WSDL version 423,2013-02-05 19:59:00,
2013-02-05 14:03:00,60.4,36.3,29.85,South,180,0.0,0.0,41,-99.99,,,-99.99,WSDL version 423,2013-02-05 20:03:00,
2013-02-05 14:04:00,60.4,36.4,29.85,South,172,0.0,0.0,41,-99.99,,,-99.99,WSDL version 423,2013-02-05 20:04:00,
2013-02-05 14:06:00,60.4,36.2,29.85,SSE,155,0.0,0.0,41,-99.99,,,-99.99,WSDL version 423,2013-02-05 20:06:00,
2013-02-05 14:11:00,60.5,36.3,29.85,SSE,166,0.0,0.0,41,-99.99,,,-99.99,WSDL version 423,2013-02-05 20:11:00,
2013-02-05 14:12:00,60.5,36.3,29.85,SSE,158,0.0,0.0,41,-99.99,,,-99.99,WSDL version 423,2013-02-05 20:12:00,
2013-02-05 14:15:00,60.7,36.4,29.85,South,170,0.0,0.0,40,-99.99,,,-99.99,WSDL version 423,2013-02-05 20:15:00,
2013-02-05 14:18:00,60.5,35.6,29.85,South,169,0.0,0.0,39,-99.99,,,-99.99,WSDL version 423,2013-02-05 20:18:00,
2013-02-05 14:19:00,60.4,35.4,29.85,South,188,0.0,0.0,40,-99.99,,,-99.99,WSDL version 423,2013-02-05 20:19:00,
2013-02-05 14:20:00,60.4,35.5,29.85,SSW,193,0.0,0.0,40,-99.99,,,-99.99,WSDL version 423,2013-02-05 20:20:00,
2013-02-05 14:25:00,60.7,36.2,29.85,SSE,154,0.0,0.0,40,-99.99,,,-99.99,WSDL version 423,2013-02-05 20:25:00,
2013-02-05 14:26:00,60.8,36.1,29.85,SSE,152,0.0,0.0,39,-99.99,,,-99.99,WSDL version 423,2013-02-05 20:26:00,
2013-02-05 14:27:00,60.8,35.9,29.85,South,178,0.0,0.0,38,-99.99,,,-99.99,WSDL version 423,2013-02-05 20:27:00,
2013-02-05 14:32:00,60.6,33.7,29.85,South,191,0.0,0.0,37,-99.99,,,-99.99,WSDL version 423,2013-02-05 20:32:00,
2013-02-05 14:33:00,60.7,33.7,29.85,South,180,0.0,0.0,36,-99.99,,,-99.99,WSDL version 423,2013-02-05 20:33:00,
2013-02-05 14:38:00,60.9,34.0,29.85,SSW,197,0.0,0.0,37,-99.99,,,-99.99,WSDL version 423,2013-02-05 20:38:00,
2013-02-05 14:40:00,61.0,34.2,29.85,SSE,149,0.0,0.0,37,-99.99,,,-99.99,WSDL version 423,2013-02-05 20:40:00,
2013-02-05 14:42:00,61.0,34.7,29.85,SSE,149,0.0,0.0,38,-99.99,,,-99.99,WSDL version 423,2013-02-05 20:42:00,
2013-02-05 14:43:00,61.0,34.9,29.85,SSE,158,0.0,0.0,38,-99.99,,,-99.99,WSDL version 423,2013-02-05 20:43:00,
2013-02-05 14:48:00,61.0,34.9,29.88,South,175,0.0,0.0,37,-99.99,,,-99.99,WSDL version 423,2013-02-05 20:48:00,
2013-02-05 14:49:00,60.9,34.5,29.88,SSE,158,0.0,0.0,37,-99.99,,,-99.99,WSDL version 423,2013-02-05 20:49:00,
2013-02-05 14:54:00,61.0,35.0,29.88,SSW,199,0.0,0.0,37,-99.99,,,-99.99,WSDL version 423,2013-02-05 20:54:00,
2013-02-05 14:58:00,61.0,34.3,29.88,South,186,0.0,0.0,36,-99.99,,,-99.99,WSDL version 423,2013-02-05 20:58:00,
2013-02-05 15:00:00,61.0,34.4,29.88,SSW,194,0.0,0.0,37,-99.99,,,-99.99,WSDL version 423,2013-02-05 21:00:00,
2013-02-05 15:02:00,61.0,34.2,29.85,South,177,0.0,0.0,36,-99.99,,,-99.99,WSDL version 423,2013-02-05 21:02:00,
2013-02-05 15:06:00,61.0,33.8,29.85,ESE,104,0.0,0.0,36,-99.99,,,-99.99,WSDL version 423,2013-02-05 21:06:00,
2013-02-05 15:07:00,61.0,33.8,29.85,SSE,167,0.0,0.0,36,-99.99,,,-99.99,WSDL version 423,2013-02-05 21:07:00,
2013-02-05 15:09:00,60.9,33.9,29.85,SSW,211,0.0,0.0,36,-99.99,,,-99.99,WSDL version 423,2013-02-05 21:09:00,
2013-02-05 15:12:00,60.9,33.9,29.85,South,173,0.0,0.0,36,-99.99,,,-99.99,WSDL version 423,2013-02-05 21:12:00,
2013-02-05 15:14:00,60.8,33.7,29.85,SE,124,0.0,0.0,36,-99.99,,,-99.99,WSDL version 423,2013-02-05 21:14:00,
2013-02-05 15:15:00,60.7,33.6,29.85,ESE,103,0.0,0.0,36,-99.99,,,-99.99,WSDL version 423,2013-02-05 21:15:00,
2013-02-05 15:18:00,60.5,33.7,29.85,South,177,0.0,0.0,37,-99.99,,,-99.99,WSDL version 423,2013-02-05 21:18:00,
2013-02-05 15:19:00,60.5,33.8,29.85,ESE,118,0.0,0.0,37,-99.99,,,-99.99,WSDL version 423,2013-02-05 21:19:00,
2013-02-05 15:20:00,60.4,33.7,29.85,SSE,152,0.0,0.0,36,-99.99,,,-99.99,WSDL version 423,2013-02-05 21:20:00,
2013-02-05 15:25:00,60.4,34.0,29.85,SW,233,0.0,0.0,37,-99.99,,,-99.99,WSDL version 423,2013-02-05 21:25:00,
2013-02-05 15:26:00,60.5,34.1,29.85,SSW,205,0.0,0.0,37,-99.99,,,-99.99,WSDL version 423,2013-02-05 21:26:00,
2013-02-05 15:27:00,60.5,34.1,29.85,SSW,203,0.0,0.0,37,-99.99,,,-99.99,WSDL version 423,2013-02-05 21:27:00,
2013-02-05 15:28:00,60.6,34.1,29.85,SW,218,0.0,0.0,37,-99.99,,,-99.99,WSDL version 423,2013-02-05 21:28:00,
2013-02-05 15:30:00,60.5,34.0,29.85,SSW,203,0.0,0.0,37,-99.99,,,-99.99,WSDL version 423,2013-02-05 21:30:00,
2013-02-05 15:33:00,60.4,33.9,29.85,South,180,0.0,0.0,37,-99.99,,,-99.99,WSDL version 423,2013-02-05 21:33:00,
2013-02-05 15:34:00,60.4,34.0,29.85,SSE,167,0.0,0.0,37,-99.99,,,-99.99,WSDL version 423,2013-02-05 21:34:00,
2013-02-05 15:35:00,60.4,34.0,29.85,South,188,0.0,0.0,37,-99.99,,,-99.99,WSDL version 423,2013-02-05 21:35:00,
2013-02-05 15:38:00,60.4,34.0,29.85,South,191,0.0,0.0,37,-99.99,,,-99.99,WSDL version 423,2013-02-05 21:38:00,
2013-02-05 15:39:00,60.4,34.0,29.85,South,186,0.0,0.0,37,-99.99,,,-99.99,WSDL version 423,2013-02-05 21:39:00,
2013-02-05 15:40:00,60.4,34.0,29.85,South,188,0.0,0.0,37,-99.99,,,-99.99,WSDL version 423,2013-02-05 21:40:00,
2013-02-05 15:44:00,60.2,33.8,29.85,SSW,211,0.0,0.0,37,-99.99,,,-99.99,WSDL version 423,2013-02-05 21:44:00,
2013-02-05 15:46:00,60.1,33.8,29.85,South,183,0.0,0.0,38,-99.99,,,-99.99,WSDL version 423,2013-02-05 21:46:00,
2013-02-05 15:47:00,60.1,33.9,29.85,SSE,168,0.0,0.0,38,-99.99,,,-99.99,WSDL version 423,2013-02-05 21:47:00,
2013-02-05 15:51:00,60.0,34.2,29.85,South,183,0.0,0.0,38,-99.99,,,-99.99,WSDL version 423,2013-02-05 21:51:00,
2013-02-05 15:52:00,60.0,34.2,29.85,SSW,196,0.0,0.0,38,-99.99,,,-99.99,WSDL version 423,2013-02-05 21:52:00,
2013-02-05 15:57:00,59.9,34.6,29.85,SW,215,0.0,0.0,39,-99.99,,,-99.99,WSDL version 423,2013-02-05 21:57:00,
2013-02-05 15:58:00,59.9,34.7,29.85,SSW,203,0.0,0.0,39,-99.99,,,-99.99,WSDL version 423,2013-02-05 21:58:00,
2013-02-05 16:03:00,59.7,34.8,29.88,SSW,199,0.0,0.0,40,-99.99,,,-99.99,WSDL version 423,2013-02-05 22:03:00,
2013-02-05 16:04:00,59.7,35.0,29.88,SW,217,0.0,0.0,40,-99.99,,,-99.99,WSDL version 423,2013-02-05 22:04:00,
2013-02-05 16:09:00,59.4,35.2,29.88,SW,225,0.0,0.0,41,-99.99,,,-99.99,WSDL version 423,2013-02-05 22:09:00,
2013-02-05 16:10:00,59.4,35.2,29.88,SW,217,0.0,0.0,41,-99.99,,,-99.99,WSDL version 423,2013-02-05 22:10:00,
2013-02-05 16:15:00,59.3,35.4,29.88,South,170,0.0,0.0,41,-99.99,,,-99.99,WSDL version 423,2013-02-05 22:15:00,
2013-02-05 16:16:00,59.3,35.4,29.88,South,188,0.0,0.0,41,-99.99,,,-99.99,WSDL version 423,2013-02-05 22:16:00,
2013-02-05 16:20:00,59.2,35.3,29.88,SE,141,0.0,0.0,41,-99.99,,,-99.99,WSDL version 423,2013-02-05 22:20:00,
2013-02-05 16:25:00,58.9,35.0,29.88,South,185,0.0,0.0,41,-99.99,,,-99.99,WSDL version 423,2013-02-05 22:25:00,
2013-02-05 16:26:00,58.9,35.0,29.88,South,190,0.0,0.0,41,-99.99,,,-99.99,WSDL version 423,2013-02-05 22:26:00,
2013-02-05 16:28:00,58.8,34.9,29.88,SW,218,0.0,0.0,41,-99.99,,,-99.99,WSDL version 423,2013-02-05 22:28:00,
2013-02-05 16:30:00,58.8,35.2,29.88,SE,145,0.0,0.0,41,-99.99,,,-99.99,WSDL version 423,2013-02-05 22:30:00,
2013-02-05 16:35:00,58.7,35.3,29.88,SSE,163,0.0,0.0,41,-99.99,,,-99.99,WSDL version 423,2013-02-05 22:35:00,
2013-02-05 16:36:00,58.5,35.2,29.88,SSE,150,0.0,0.0,41,-99.99,,,-99.99,WSDL version 423,2013-02-05 22:36:00,
2013-02-05 16:38:00,58.4,35.1,29.88,SSE,160,0.0,0.0,41,-99.99,,,-99.99,WSDL version 423,2013-02-05 22:38:00,
2013-02-05 16:40:00,58.3,35.0,29.88,SSE,160,0.0,0.0,41,-99.99,,,-99.99,WSDL version 423,2013-02-05 22:40:00,
2013-02-05 16:43:00,58.1,34.8,29.88,South,177,0.0,0.0,41,-99.99,,,-99.99,WSDL version 423,2013-02-05 22:43:00,
2013-02-05 16:45:00,58.0,34.7,29.88,SE,145,0.0,0.0,41,-99.99,,,-99.99,WSDL version 423,2013-02-05 22:45:00,
2013-02-05 16:50:00,57.7,34.9,29.88,South,180,0.0,0.0,42,-99.99,,,-99.99,WSDL version 423,2013-02-05 22:50:00,
2013-02-05 16:51:00,57.6,35.0,29.88,South,186,0.0,0.0,42,-99.99,,,-99.99,WSDL version 423,2013-02-05 22:51:00,
2013-02-05 16:52:00,57.6,34.9,29.88,South,186,0.0,0.0,42,-99.99,,,-99.99,WSDL version 423,2013-02-05 22:52:00,
2013-02-05 16:53:00,57.6,34.9,29.88,South,177,0.0,0.0,42,-99.99,,,-99.99,WSDL version 423,2013-02-05 22:53:00,
2013-02-05 16:56:00,57.5,34.8,29.88,South,183,0.0,0.0,42,-99.99,,,-99.99,WSDL version 423,2013-02-05 22:56:00,
2013-02-05 16:58:00,57.4,34.7,29.88,SSW,197,0.0,0.0,42,-99.99,,,-99.99,WSDL version 423,2013-02-05 22:58:00,
2013-02-05 17:02:00,57.2,34.0,29.88,South,186,0.0,0.0,41,-99.99,,,-99.99,WSDL version 423,2013-02-05 23:02:00,
2013-02-05 17:03:00,57.2,33.8,29.88,SSE,165,0.0,0.0,41,-99.99,,,-99.99,WSDL version 423,2013-02-05 23:03:00,
2013-02-05 17:06:00,57.0,33.4,29.88,WSW,248,0.0,0.0,41,-99.99,,,-99.99,WSDL version 423,2013-02-05 23:06:00,
2013-02-05 17:08:00,56.9,33.2,29.88,South,185,0.0,0.0,41,-99.99,,,-99.99,WSDL version 423,2013-02-05 23:08:00,
2013-02-05 17:10:00,56.8,33.1,29.88,SSW,193,0.0,0.0,41,-99.99,,,-99.99,WSDL version 423,2013-02-05 23:10:00,
2013-02-05 17:11:00,56.7,33.0,29.88,South,183,0.0,0.0,41,-99.99,,,-99.99,WSDL version 423,2013-02-05 23:11:00,
2013-02-05 17:15:00,56.4,32.7,29.88,SW,225,0.0,0.0,41,-99.99,,,-99.99,WSDL version 423,2013-02-05 23:15:00,
2013-02-05 17:17:00,56.3,32.6,29.88,SW,225,0.0,0.0,41,-99.99,,,-99.99,WSDL version 423,2013-02-05 23:17:00,
2013-02-05 17:20:00,56.0,32.4,29.88,SW,225,0.0,0.0,41,-99.99,,,-99.99,WSDL version 423,2013-02-05 23:20:00,
2013-02-05 17:24:00,55.7,32.2,29.88,SW,225,0.0,0.0,41,-99.99,,,-99.99,WSDL version 423,2013-02-05 23:24:00,
2013-02-05 17:25:00,55.7,32.3,29.88,SW,225,0.0,0.0,41,-99.99,,,-99.99,WSDL version 423,2013-02-05 23:25:00,
2013-02-05 17:30:00,55.3,32.3,29.88,SW,225,0.0,0.0,41,-99.99,,,-99.99,WSDL version 423,2013-02-05 23:30:00,
2013-02-05 17:31:00,55.2,32.1,29.88,SW,218,0.0,0.0,41,-99.99,,,-99.99,WSDL version 423,2013-02-05 23:31:00,
2013-02-05 17:35:00,54.9,31.9,29.88,SSW,203,0.0,0.0,41,-99.99,,,-99.99,WSDL version 423,2013-02-05 23:35:00,
2013-02-05 17:36:00,54.9,32.0,29.88,SSW,203,0.0,0.0,41,-99.99,,,-99.99,WSDL version 423,2013-02-05 23:36:00,
2013-02-05 17:41:00,54.6,31.7,29.88,SSW,208,0.0,0.0,41,-99.99,,,-99.99,WSDL version 423,2013-02-05 23:41:00,
2013-02-05 17:46:00,54.3,31.4,29.88,WSW,248,0.0,0.0,41,-99.99,,,-99.99,WSDL version 423,2013-02-05 23:46:00,
2013-02-05 17:47:00,54.3,31.5,29.88,WSW,248,0.0,0.0,42,-99.99,,,-99.99,WSDL version 423,2013-02-05 23:47:00,
2013-02-05 17:51:00,54.0,31.7,29.88,WSW,248,0.0,0.0,42,-99.99,,,-99.99,WSDL version 423,2013-02-05 23:51:00,
2013-02-05 17:52:00,54.0,31.6,29.88,WSW,248,0.0,0.0,42,-99.99,,,-99.99,WSDL version 423,2013-02-05 23:52:00,
2013-02-05 17:56:00,53.8,31.5,29.88,WSW,248,0.0,0.0,42,-99.99,,,-99.99,WSDL version 423,2013-02-05 23:56:00,
2013-02-05 17:57:00,53.7,31.4,29.88,WSW,248,0.0,0.0,42,-99.99,,,-99.99,WSDL version 423,2013-02-05 23:57:00,
2013-02-05 17:59:00,53.5,31.3,29.88,WSW,248,0.0,0.0,42,-99.99,,,-99.99,WSDL version 423,2013-02-05 23:59:00,
2013-02-05 18:02:00,53.2,31.0,29.88,WSW,248,0.0,0.0,42,-99.99,,,-99.99,WSDL version 423,2013-02-06 00:02:00,
2013-02-05 18:07:00,52.7,30.5,29.88,WSW,248,0.0,0.0,42,-99.99,,,-99.99,WSDL version 423,2013-02-06 00:07:00,
2013-02-05 18:09:00,52.5,30.5,29.88,WSW,248,0.0,0.0,43,-99.99,,,-99.99,WSDL version 423,2013-02-06 00:09:00,
2013-02-05 18:13:00,52.0,30.4,29.88,WSW,248,0.0,0.0,43,-99.99,,,-99.99,WSDL version 423,2013-02-06 00:13:00,
2013-02-05 18:16:00,51.6,30.0,29.91,WSW,248,0.0,0.0,43,-99.99,,,-99.99,WSDL version 423,2013-02-06 00:16:00,
2013-02-05 18:18:00,51.4,29.9,29.91,WSW,248,0.0,0.0,43,-99.99,,,-99.99,WSDL version 423,2013-02-06 00:18:00,
2013-02-05 18:23:00,51.1,29.8,29.91,WSW,248,0.0,0.0,44,-99.99,,,-99.99,WSDL version 423,2013-02-06 00:23:00,
2013-02-05 18:24:00,51.1,29.9,29.91,WSW,248,0.0,0.0,44,-99.99,,,-99.99,WSDL version 423,2013-02-06 00:24:00,
2013-02-05 18:29:00,50.8,29.8,29.91,WSW,248,0.0,0.0,44,-99.99,,,-99.99,WSDL version 423,2013-02-06 00:29:00,
2013-02-05 18:30:00,50.8,29.8,29.91,WSW,248,0.0,0.0,44,-99.99,,,-99.99,WSDL version 423,2013-02-06 00:30:00,
2013-02-05 18:35:00,50.5,30.0,29.91,WSW,248,0.0,0.0,45,-99.99,,,-99.99,WSDL version 423,2013-02-06 00:35:00,
2013-02-05 18:37:00,50.4,30.0,29.91,WSW,248,0.0,0.0,45,-99.99,,,-99.99,WSDL version 423,2013-02-06 00:37:00,
2013-02-05 18:42:00,50.2,30.1,29.91,WSW,248,0.0,0.0,46,-99.99,,,-99.99,WSDL version 423,2013-02-06 00:42:00,
2013-02-05 18:43:00,50.1,30.1,29.91,WSW,248,0.0,0.0,46,-99.99,,,-99.99,WSDL version 423,2013-02-06 00:43:00,
2013-02-05 18:47:00,49.9,30.1,29.91,WSW,248,0.0,0.0,46,-99.99,,,-99.99,WSDL version 423,2013-02-06 00:47:00,
2013-02-05 18:49:00,49.9,30.2,29.91,WSW,248,0.0,0.0,47,-99.99,,,-99.99,WSDL version 423,2013-02-06 00:49:00,
2013-02-05 18:51:00,49.7,30.2,29.91,WSW,248,0.0,0.0,47,-99.99,,,-99.99,WSDL version 423,2013-02-06 00:51:00,
2013-02-05 18:56:00,49.4,30.0,29.91,WSW,248,0.0,0.0,47,-99.99,,,-99.99,WSDL version 423,2013-02-06 00:56:00,
2013-02-05 18:57:00,49.3,29.9,29.91,WSW,248,0.0,0.0,47,-99.99,,,-99.99,WSDL version 423,2013-02-06 00:57:00,
2013-02-05 19:01:00,49.0,29.8,29.91,WSW,248,0.0,0.0,48,-99.99,,,-99.99,WSDL version 423,2013-02-06 01:01:00,
2013-02-05 19:03:00,49.0,29.9,29.91,WSW,248,0.0,0.0,48,-99.99,,,-99.99,WSDL version 423,2013-02-06 01:03:00,
2013-02-05 19:07:00,48.8,30.1,29.91,WSW,248,0.0,0.0,49,-99.99,,,-99.99,WSDL version 423,2013-02-06 01:07:00,
2013-02-05 19:12:00,48.6,30.2,29.91,WSW,248,0.0,0.0,49,-99.99,,,-99.99,WSDL version 423,2013-02-06 01:12:00,
2013-02-05 19:17:00,48.5,30.2,29.91,SW,225,0.0,0.0,50,-99.99,,,-99.99,WSDL version 423,2013-02-06 01:17:00,
2013-02-05 19:18:00,48.4,30.3,29.91,SW,225,0.0,0.0,51,-99.99,,,-99.99,WSDL version 423,2013-02-06 01:18:00,
2013-02-05 19:23:00,48.4,30.9,29.91,SW,225,0.0,0.0,51,-99.99,,,-99.99,WSDL version 423,2013-02-06 01:23:00,
2013-02-05 19:26:00,48.3,30.8,29.91,SW,225,0.0,0.0,51,-99.99,,,-99.99,WSDL version 423,2013-02-06 01:26:00,
2013-02-05 19:31:00,48.1,31.0,29.91,SW,225,0.0,0.0,52,-99.99,,,-99.99,WSDL version 423,2013-02-06 01:31:00,
2013-02-05 19:35:00,47.9,30.9,29.91,SW,225,0.0,0.0,52,-99.99,,,-99.99,WSDL version 423,2013-02-06 01:35:00,
2013-02-05 19:36:00,47.9,30.9,29.91,SW,225,0.0,0.0,52,-99.99,,,-99.99,WSDL version 423,2013-02-06 01:36:00,
2013-02-05 19:41:00,47.6,30.7,29.91,SW,225,0.0,0.0,52,-99.99,,,-99.99,WSDL version 423,2013-02-06 01:41:00,
2013-02-05 19:43:00,47.5,30.9,29.91,SW,225,0.0,0.0,52,-99.99,,,-99.99,WSDL version 423,2013-02-06 01:43:00,
2013-02-05 19:47:00,47.3,30.8,29.91,SW,225,0.0,0.0,52,-99.99,,,-99.99,WSDL version 423,2013-02-06 01:47:00,
2013-02-05 19:49:00,47.3,30.8,29.91,SW,225,0.0,0.0,52,-99.99,,,-99.99,WSDL version 423,2013-02-06 01:49:00,
2013-02-05 19:52:00,47.3,30.8,29.91,SW,225,0.0,0.0,52,-99.99,,,-99.99,WSDL version 423,2013-02-06 01:52:00,
2013-02-05 19:56:00,47.2,30.6,29.91,SW,225,0.0,0.0,52,-99.99,,,-99.99,WSDL version 423,2013-02-06 01:56:00,
2013-02-05 19:57:00,47.1,30.7,29.91,SW,225,0.0,0.0,53,-99.99,,,-99.99,WSDL version 423,2013-02-06 01:57:00,
2013-02-05 20:02:00,47.1,31.0,29.94,SW,225,0.0,0.0,53,-99.99,,,-99.99,WSDL version 423,2013-02-06 02:02:00,
2013-02-05 20:03:00,47.1,31.0,29.94,SW,225,0.0,0.0,53,-99.99,,,-99.99,WSDL version 423,2013-02-06 02:03:00,
2013-02-05 20:07:00,47.1,31.1,29.94,SW,225,0.0,0.0,54,-99.99,,,-99.99,WSDL version 423,2013-02-06 02:07:00,
2013-02-05 20:09:00,47.0,31.2,29.94,SW,225,0.0,0.0,54,-99.99,,,-99.99,WSDL version 423,2013-02-06 02:09:00,
2013-02-05 20:12:00,46.9,31.3,29.94,SW,225,0.0,0.0,54,-99.99,,,-99.99,WSDL version 423,2013-02-06 02:12:00,
2013-02-05 20:17:00,46.7,31.4,29.94,SW,225,0.0,0.0,55,-99.99,,,-99.99,WSDL version 423,2013-02-06 02:17:00,
2013-02-05 20:19:00,46.7,31.5,29.94,SW,225,0.0,0.0,55,-99.99,,,-99.99,WSDL version 423,2013-02-06 02:19:00,
2013-02-05 20:23:00,46.6,31.3,29.94,SW,225,0.0,0.0,55,-99.99,,,-99.99,WSDL version 423,2013-02-06 02:23:00,
2013-02-05 20:24:00,46.6,31.3,29.94,SW,225,0.0,0.0,55,-99.99,,,-99.99,WSDL version 423,2013-02-06 02:24:00,
2013-02-05 20:29:00,46.6,31.5,29.94,SW,225,0.0,0.0,55,-99.99,,,-99.99,WSDL version 423,2013-02-06 02:29:00,
2013-02-05 20:30:00,46.5,31.5,29.94,SW,225,0.0,0.0,55,-99.99,,,-99.99,WSDL version 423,2013-02-06 02:30:00,
2013-02-05 20:34:00,46.4,31.4,29.94,SW,225,0.0,0.0,56,-99.99,,,-99.99,WSDL version 423,2013-02-06 02:34:00,
2013-02-05 20:35:00,46.3,31.5,29.94,SW,225,0.0,0.0,56,-99.99,,,-99.99,WSDL version 423,2013-02-06 02:35:00,
2013-02-05 20:39:00,46.2,31.4,29.94,SW,225,0.0,0.0,56,-99.99,,,-99.99,WSDL version 423,2013-02-06 02:39:00,
2013-02-05 20:44:00,46.0,31.6,29.94,SW,225,0.0,0.0,57,-99.99,,,-99.99,WSDL version 423,2013-02-06 02:44:00,
2013-02-05 20:46:00,46.0,31.6,29.94,SW,225,0.0,0.0,57,-99.99,,,-99.99,WSDL version 423,2013-02-06 02:46:00,
2013-02-05 20:49:00,46.0,31.6,29.94,SW,225,0.0,0.0,57,-99.99,,,-99.99,WSDL version 423,2013-02-06 02:49:00,
2013-02-05 20:51:00,46.0,31.8,29.94,SW,225,0.0,0.0,58,-99.99,,,-99.99,WSDL version 423,2013-02-06 02:51:00,
2013-02-05 20:52:00,45.9,31.8,29.94,SW,225,0.0,0.0,58,-99.99,,,-99.99,WSDL version 423,2013-02-06 02:52:00,
2013-02-05 20:54:00,45.9,31.9,29.94,SW,225,0.0,0.0,58,-99.99,,,-99.99,WSDL version 423,2013-02-06 02:54:00,
2013-02-05 20:59:00,45.8,32.1,29.94,SW,225,0.0,0.0,58,-99.99,,,-99.99,WSDL version 423,2013-02-06 02:59:00,
2013-02-05 21:04:00,45.8,32.1,29.94,SW,225,0.0,0.0,59,-99.99,,,-99.99,WSDL version 423,2013-02-06 03:04:00,
2013-02-05 21:05:00,45.8,32.1,29.94,SW,225,0.0,0.0,59,-99.99,,,-99.99,WSDL version 423,2013-02-06 03:05:00,
2013-02-05 21:10:00,45.5,32.0,29.94,SW,225,0.0,0.0,59,-99.99,,,-99.99,WSDL version 423,2013-02-06 03:10:00,
2013-02-05 21:11:00,45.5,31.9,29.94,SW,225,0.0,0.0,59,-99.99,,,-99.99,WSDL version 423,2013-02-06 03:11:00,
2013-02-05 21:15:00,45.4,31.8,29.94,SW,225,0.0,0.0,59,-99.99,,,-99.99,WSDL version 423,2013-02-06 03:15:00,
2013-02-05 21:17:00,45.3,31.8,29.94,SW,225,0.0,0.0,59,-99.99,,,-99.99,WSDL version 423,2013-02-06 03:17:00,
2013-02-05 21:19:00,45.2,31.8,29.94,SW,225,0.0,0.0,60,-99.99,,,-99.99,WSDL version 423,2013-02-06 03:19:00,
2013-02-05 21:20:00,45.1,31.8,29.94,SW,225,0.0,0.0,60,-99.99,,,-99.99,WSDL version 423,2013-02-06 03:20:00,
2013-02-05 21:22:00,45.0,31.9,29.94,SW,225,0.0,0.0,61,-99.99,,,-99.99,WSDL version 423,2013-02-06 03:22:00,
2013-02-05 21:26:00,44.9,31.9,29.94,SW,225,0.0,0.0,60,-99.99,,,-99.99,WSDL version 423,2013-02-06 03:26:00,
2013-02-05 21:28:00,44.7,31.7,29.94,SW,225,0.0,0.0,61,-99.99,,,-99.99,WSDL version 423,2013-02-06 03:28:00,
2013-02-05 21:32:00,44.6,31.9,29.97,SW,225,0.0,0.0,62,-99.99,,,-99.99,WSDL version 423,2013-02-06 03:32:00,
2013-02-05 21:33:00,44.6,32.1,29.97,SW,225,0.0,0.0,62,-99.99,,,-99.99,WSDL version 423,2013-02-06 03:33:00,
2013-02-05 21:37:00,44.6,33.0,29.97,SW,225,0.0,0.0,64,-99.99,,,-99.99,WSDL version 423,2013-02-06 03:37:00,
2013-02-05 21:42:00,44.6,33.2,29.97,SW,225,0.0,0.0,64,-99.99,,,-99.99,WSDL version 423,2013-02-06 03:42:00,
2013-02-05 21:48:00,44.3,33.0,29.97,SW,225,0.0,0.0,64,-99.99,,,-99.99,WSDL version 423,2013-02-06 03:48:00,
2013-02-05 21:50:00,44.3,33.0,29.97,SW,225,0.0,0.0,64,-99.99,,,-99.99,WSDL version 423,2013-02-06 03:50:00,
2013-02-05 21:53:00,44.2,33.0,29.97,SW,225,0.0,0.0,65,-99.99,,,-99.99,WSDL version 423,2013-02-06 03:53:00,
2013-02-05 21:55:00,44.2,33.2,29.97,SW,225,0.0,0.0,65,-99.99,,,-99.99,WSDL version 423,2013-02-06 03:55:00,
2013-02-05 22:00:00,44.0,32.8,29.97,SW,225,0.0,0.0,64,-99.99,,,-99.99,WSDL version 423,2013-02-06 04:00:00,
2013-02-05 22:01:00,44.0,32.8,29.97,SW,225,0.0,0.0,64,-99.99,,,-99.99,WSDL version 423,2013-02-06 04:01:00,
2013-02-05 22:02:00,44.0,32.7,29.97,SW,225,0.0,0.0,64,-99.99,,,-99.99,WSDL version 423,2013-02-06 04:02:00,
2013-02-05 22:03:00,43.9,32.6,29.97,SW,225,0.0,0.0,64,-99.99,,,-99.99,WSDL version 423,2013-02-06 04:03:00,
2013-02-05 22:08:00,43.5,32.3,29.97,SW,225,0.0,0.0,64,-99.99,,,-99.99,WSDL version 423,2013-02-06 04:08:00,
2013-02-05 22:09:00,43.5,32.2,29.97,SW,225,0.0,0.0,64,-99.99,,,-99.99,WSDL version 423,2013-02-06 04:09:00,
2013-02-05 22:10:00,43.4,32.2,29.97,SW,225,0.0,0.0,64,-99.99,,,-99.99,WSDL version 423,2013-02-06 04:10:00,
2013-02-05 22:13:00,43.4,32.2,29.97,SW,225,0.0,0.0,64,-99.99,,,-99.99,WSDL version 423,2013-02-06 04:13:00,
2013-02-05 22:14:00,43.3,32.1,29.97,SW,225,0.0,0.0,64,-99.99,,,-99.99,WSDL version 423,2013-02-06 04:14:00,
2013-02-05 22:16:00,43.2,32.1,29.97,SW,225,0.0,0.0,65,-99.99,,,-99.99,WSDL version 423,2013-02-06 04:16:00,
2013-02-05 22:17:00,43.2,32.2,29.97,SW,225,0.0,0.0,65,-99.99,,,-99.99,WSDL version 423,2013-02-06 04:17:00,
2013-02-05 22:22:00,43.0,32.1,29.97,SW,225,0.0,0.0,65,-99.99,,,-99.99,WSDL version 423,2013-02-06 04:22:00,
2013-02-05 22:24:00,43.0,32.1,29.97,SW,225,0.0,0.0,65,-99.99,,,-99.99,WSDL version 423,2013-02-06 04:24:00,
2013-02-05 22:26:00,42.9,32.1,29.97,SW,225,0.0,0.0,66,-99.99,,,-99.99,WSDL version 423,2013-02-06 04:26:00,
2013-02-05 22:29:00,42.8,32.2,29.97,SW,225,0.0,0.0,66,-99.99,,,-99.99,WSDL version 423,2013-02-06 04:29:00,
2013-02-05 22:30:00,42.8,32.3,29.97,SW,225,0.0,0.0,66,-99.99,,,-99.99,WSDL version 423,2013-02-06 04:30:00,
2013-02-05 22:31:00,42.8,32.2,29.97,SW,225,0.0,0.0,65,-99.99,,,-99.99,WSDL version 423,2013-02-06 04:31:00,
2013-02-05 22:32:00,42.8,32.2,29.97,SW,225,0.0,0.0,66,-99.99,,,-99.99,WSDL version 423,2013-02-06 04:32:00,
2013-02-05 22:37:00,42.8,32.3,29.97,SW,225,0.0,0.0,66,-99.99,,,-99.99,WSDL version 423,2013-02-06 04:37:00,
2013-02-05 22:39:00,42.8,32.3,29.97,SW,225,0.0,0.0,66,-99.99,,,-99.99,WSDL version 423,2013-02-06 04:39:00,
2013-02-05 22:40:00,42.8,32.3,29.97,SW,225,0.0,0.0,66,-99.99,,,-99.99,WSDL version 423,2013-02-06 04:40:00,
2013-02-05 22:42:00,42.8,32.4,29.97,SW,225,0.0,0.0,67,-99.99,,,-99.99,WSDL version 423,2013-02-06 04:42:00,
2013-02-05 22:47:00,42.7,32.6,29.97,SW,225,0.0,0.0,67,-99.99,,,-99.99,WSDL version 423,2013-02-06 04:47:00,
2013-02-05 22:48:00,42.7,32.5,29.97,SW,225,0.0,0.0,67,-99.99,,,-99.99,WSDL version 423,2013-02-06 04:48:00,
2013-02-05 22:51:00,42.5,32.4,29.97,SW,225,0.0,0.0,67,-99.99,,,-99.99,WSDL version 423,2013-02-06 04:51:00,
2013-02-05 22:52:00,42.5,32.3,29.97,SW,225,0.0,0.0,67,-99.99,,,-99.99,WSDL version 423,2013-02-06 04:52:00,
2013-02-05 22:53:00,42.5,32.3,29.97,SW,225,0.0,0.0,67,-99.99,,,-99.99,WSDL version 423,2013-02-06 04:53:00,
2013-02-05 22:57:00,42.4,32.3,29.97,SW,225,0.0,0.0,68,-99.99,,,-99.99,WSDL version 423,2013-02-06 04:57:00,
2013-02-05 22:58:00,42.3,32.3,29.97,SW,225,0.0,0.0,68,-99.99,,,-99.99,WSDL version 423,2013-02-06 04:58:00,
2013-02-05 23:00:00,42.3,32.4,29.97,SW,225,0.0,0.0,68,-99.99,,,-99.99,WSDL version 423,2013-02-06 05:00:00,
2013-02-05 23:02:00,42.3,32.5,29.97,SW,225,0.0,0.0,68,-99.99,,,-99.99,WSDL version 423,2013-02-06 05:02:00,
2013-02-05 23:06:00,42.2,32.7,29.97,SW,225,0.0,0.0,69,-99.99,,,-99.99,WSDL version 423,2013-02-06 05:06:00,
2013-02-05 23:07:00,42.3,32.8,29.97,SW,225,0.0,0.0,69,-99.99,,,-99.99,WSDL version 423,2013-02-06 05:07:00,
2013-02-05 23:12:00,42.2,32.9,29.97,SW,225,0.0,0.0,70,-99.99,,,-99.99,WSDL version 423,2013-02-06 05:12:00,
2013-02-05 23:14:00,42.2,33.0,29.97,SW,225,0.0,0.0,70,-99.99,,,-99.99,WSDL version 423,2013-02-06 05:14:00,
2013-02-05 23:17:00,42.2,33.1,30.00,SW,225,0.0,0.0,71,-99.99,,,-99.99,WSDL version 423,2013-02-06 05:17:00,
2013-02-05 23:18:00,42.2,33.2,30.00,SW,225,0.0,0.0,71,-99.99,,,-99.99,WSDL version 423,2013-02-06 05:18:00,
2013-02-05 23:19:00,42.2,33.3,30.00,SW,225,0.0,0.0,71,-99.99,,,-99.99,WSDL version 423,2013-02-06 05:19:00,
2013-02-05 23:21:00,42.2,33.5,30.00,WSW,245,0.0,0.0,72,-99.99,,,-99.99,WSDL version 423,2013-02-06 05:21:00,
2013-02-05 23:24:00,42.3,33.7,30.00,West,270,0.0,0.0,72,-99.99,,,-99.99,WSDL version 423,2013-02-06 05:24:00,
2013-02-05 23:25:00,42.3,33.9,30.00,West,270,0.0,0.0,72,-99.99,,,-99.99,WSDL version 423,2013-02-06 05:25:00,
2013-02-05 23:29:00,42.4,34.4,30.00,West,270,0.0,0.0,73,-99.99,,,-99.99,WSDL version 423,2013-02-06 05:29:00,
2013-02-05 23:30:00,42.4,34.5,30.00,West,270,0.0,0.0,73,-99.99,,,-99.99,WSDL version 423,2013-02-06 05:30:00,
2013-02-05 23:33:00,42.6,34.9,30.00,WNW,287,0.0,0.0,75,-99.99,,,-99.99,WSDL version 423,2013-02-06 05:33:00,
2013-02-05 23:34:00,42.6,35.0,30.00,WNW,293,0.0,0.0,75,-99.99,,,-99.99,WSDL version 423,2013-02-06 05:34:00,
2013-02-05 23:36:00,42.7,35.4,30.00,WNW,293,0.0,0.0,76,-99.99,,,-99.99,WSDL version 423,2013-02-06 05:36:00,
2013-02-05 23:39:00,42.9,36.1,30.00,WNW,293,0.0,0.0,77,-99.99,,,-99.99,WSDL version 423,2013-02-06 05:39:00,
2013-02-05 23:40:00,42.9,36.2,30.00,WNW,293,0.0,0.0,77,-99.99,,,-99.99,WSDL version 423,2013-02-06 05:40:00,
2013-02-05 23:43:00,42.8,36.1,30.00,WNW,293,0.0,0.0,77,-99.99,,,-99.99,WSDL version 423,2013-02-06 05:43:00,
2013-02-05 23:47:00,42.9,36.0,30.00,WNW,290,0.0,0.0,77,-99.99,,,-99.99,WSDL version 423,2013-02-06 05:47:00,
2013-02-05 23:48:00,42.9,36.2,30.00,WNW,287,0.0,0.0,78,-99.99,,,-99.99,WSDL version 423,2013-02-06 05:48:00,
2013-02-05 23:52:00,43.1,37.0,30.00,WNW,290,0.0,0.0,80,-99.99,,,-99.99,WSDL version 423,2013-02-06 05:52:00,
2013-02-05 23:53:00,43.1,37.2,30.00,WNW,293,0.0,0.0,80,-99.99,,,-99.99,WSDL version 423,2013-02-06 05:53:00,
2013-02-05 23:54:00,43.1,37.3,30.00,WNW,293,0.0,0.0,80,-99.99,,,-99.99,WSDL version 423,2013-02-06 05:54:00,
2013-02-05 23:57:00,43.2,37.4,30.00,WNW,293,0.0,0.0,80,-99.99,,,-99.99,WSDL version 423,2013-02-06 05:57:00,